Wetterdaten: Mittwoch, 29.07.2020
Datum Zeit Temp. Aussen Temp. o. S. Temp +5cm Feuchte Auss Luftdruck Regen Sonnenschein Regendauer Solar Windben Empfang
29.07.2020 00:00 17,4 C 16,1 C 16,1 C 69 % 1017,1 hPa 0,0 l/m 0 min 0 min 0 W/m 6,4 km/h (2 Bft) 97,87 %
29.07.2020 00:02 17,4 C 16,1 C 16,1 C 69 % 1017,1 hPa 0,0 l/m 0 min 0 min 0 W/m 3,2 km/h (1 Bft) 97,73 %
29.07.2020 00:04 17,4 C 16,1 C 16,1 C 69 % 1017,1 hPa 0,0 l/m 0 min 0 min 0 W/m 3,2 km/h (1 Bft) 97,87 %
29.07.2020 00:07 17,3 C 16,1 C 16,1 C 69 % 1017,1 hPa 0,0 l/m 0 min 0 min 0 W/m 6,4 km/h (2 Bft) 97,87 %
29.07.2020 00:08 17,3 C 16,1 C 16,1 C 69 % 1017,1 hPa 0,0 l/m 0 min 0 min 0 W/m 6,4 km/h (2 Bft) 97,85 %
29.07.2020 00:10 17,3 C 16,1 C 16,1 C 69 % 1017,2 hPa 0,0 l/m 0 min 0 min 0 W/m 3,2 km/h (1 Bft) 97,87 %
29.07.2020 00:12 17,3 C 16,1 C 16,1 C 69 % 1017,2 hPa 0,0 l/m 0 min 0 min 0 W/m 3,2 km/h (1 Bft) 97,87 %
29.07.2020 00:14 17,3 C 16,1 C 16,1 C 69 % 1017,2 hPa 0,0 l/m 0 min 0 min 0 W/m 3,2 km/h (1 Bft) 97,83 %
29.07.2020 00:16 17,3 C 16,1 C 16,1 C 69 % 1017,1 hPa 0,0 l/m 0 min 0 min 0 W/m 6,4 km/h (2 Bft) 97,87 %
29.07.2020 00:18 17,2 C 16,1 C 16,1 C 69 % 1017,1 hPa 0,0 l/m 0 min 0 min 0 W/m 6,4 km/h (2 Bft) 97,87 %
29.07.2020 00:20 17,2 C 16,1 C 16,1 C 69 % 1017,2 hPa 0,0 l/m 0 min 0 min 0 W/m 3,2 km/h (1 Bft) 93,62 %
29.07.2020 00:22 17,2 C 15,6 C 16,1 C 69 % 1017,3 hPa 0,0 l/m 0 min 0 min 0 W/m 3,2 km/h (1 Bft) 97,87 %
29.07.2020 00:24 17,2 C 15,6 C 16,1 C 70 % 1017,3 hPa 0,0 l/m 0 min 0 min 0 W/m 6,4 km/h (2 Bft) 97,87 %
29.07.2020 00:26 17,2 C 15,6 C 16,1 C 70 % 1017,3 hPa 0,0 l/m 0 min 0 min 0 W/m 3,2 km/h (1 Bft) 97,83 %
29.07.2020 00:28 17,2 C 15,6 C 16,1 C 70 % 1017,3 hPa 0,0 l/m 0 min 0 min 0 W/m 6,4 km/h (2 Bft) 97,87 %
29.07.2020 00:30 17,2 C 16,1 C 16,1 C 70 % 1017,3 hPa 0,0 l/m 0 min 0 min 0 W/m 9,7 km/h (2 Bft) 97,87 %
29.07.2020 00:32 17,1 C 16,1 C 16,1 C 70 % 1017,3 hPa 0,0 l/m 0 min 0 min 0 W/m 6,4 km/h (2 Bft) 97,87 %
29.07.2020 00:34 17,1 C 15,6 C 16,1 C 70 % 1017,3 hPa 0,0 l/m 0 min 0 min 0 W/m 3,2 km/h (1 Bft) 97,87 %
29.07.2020 00:36 17,1 C 15,6 C 15,6 C 70 % 1017,3 hPa 0,0 l/m 0 min 0 min 0 W/m 6,4 km/h (2 Bft) 95,74 %
29.07.2020 00:38 17,1 C 15,6 C 15,6 C 70 % 1017,3 hPa 0,0 l/m 0 min 0 min 0 W/m 6,4 km/h (2 Bft) 97,83 %
29.07.2020 00:40 17,1 C 15,6 C 15,6 C 70 % 1017,3 hPa 0,0 l/m 0 min 0 min 0 W/m 6,4 km/h (2 Bft) 100,00 %
29.07.2020 00:42 17,1 C 15,6 C 15,6 C 70 % 1017,3 hPa 0,0 l/m 0 min 0 min 0 W/m 3,2 km/h (1 Bft) 100,00 %
29.07.2020 00:44 17,0 C 15,6 C 15,6 C 70 % 1017,3 hPa 0,0 l/m 0 min 0 min 0 W/m 3,2 km/h (1 Bft) 100,00 %
29.07.2020 00:46 17,0 C 15,6 C 15,6 C 70 % 1017,3 hPa 0,0 l/m 0 min 0 min 0 W/m 3,2 km/h (1 Bft) 100,00 %
29.07.2020 00:48 17,0 C 15,6 C 15,6 C 70 % 1017,4 hPa 0,0 l/m 0 min 0 min 0 W/m 3,2 km/h (1 Bft) 100,00 %
29.07.2020 00:50 16,9 C 15,6 C 15,6 C 70 % 1017,4 hPa 0,0 l/m 0 min 0 min 0 W/m 0,0 km/h (0 Bft) 100,00 %
29.07.2020 00:52 16,9 C 15,0 C 15,0 C 70 % 1017,4 hPa 0,0 l/m 0 min 0 min 0 W/m 0,0 km/h (0 Bft) 100,00 %
29.07.2020 00:54 16,9 C 15,0 C 15,0 C 71 % 1017,4 hPa 0,0 l/m 0 min 0 min 0 W/m 6,4 km/h (2 Bft) 100,00 %
29.07.2020 00:56 16,9 C 15,0 C 15,0 C 71 % 1017,4 hPa 0,0 l/m 0 min 0 min 0 W/m 3,2 km/h (1 Bft) 100,00 %
29.07.2020 00:58 16,9 C 15,0 C 15,0 C 71 % 1017,4 hPa 0,0 l/m 0 min 0 min 0 W/m 3,2 km/h (1 Bft) 100,00 %
29.07.2020 01:00 16,8 C 15,0 C 15,0 C 71 % 1017,4 hPa 0,0 l/m 0 min 0 min 0 W/m 3,2 km/h (1 Bft) 100,00 %
29.07.2020 01:02 16,8 C 15,0 C 15,0 C 71 % 1017,4 hPa 0,0 l/m 0 min 0 min 0 W/m 3,2 km/h (1 Bft) 98,28 %
29.07.2020 01:04 16,8 C 15,0 C 15,0 C 71 % 1017,4 hPa 0,0 l/m 0 min 0 min 0 W/m 3,2 km/h (1 Bft) 100,00 %
29.07.2020 01:06 16,7 C 15,0 C 15,0 C 71 % 1017,4 hPa 0,0 l/m 0 min 0 min 0 W/m 0,0 km/h (0 Bft) 100,00 %
29.07.2020 01:08 16,7 C 15,0 C 15,0 C 71 % 1017,4 hPa 0,0 l/m 0 min 0 min 0 W/m 6,4 km/h (2 Bft) 100,00 %
29.07.2020 01:10 16,7 C 15,0 C 15,0 C 71 % 1017,4 hPa 0,0 l/m 0 min 0 min 0 W/m 6,4 km/h (2 Bft) 100,00 %
29.07.2020 01:12 16,7 C 15,0 C 15,0 C 71 % 1017,5 hPa 0,0 l/m 0 min 0 min 0 W/m 3,2 km/h (1 Bft) 100,00 %
29.07.2020 01:14 16,6 C 15,0 C 15,0 C 71 % 1017,4 hPa 0,0 l/m 0 min 0 min 0 W/m 0,0 km/h (0 Bft) 100,00 %
29.07.2020 01:16 16,6 C 15,0 C 15,0 C 71 % 1017,4 hPa 0,0 l/m 0 min 0 min 0 W/m 3,2 km/h (1 Bft) 100,00 %
29.07.2020 01:18 16,6 C 15,0 C 15,0 C 71 % 1017,4 hPa 0,0 l/m 0 min 0 min 0 W/m 6,4 km/h (2 Bft) 100,00 %
29.07.2020 01:20 16,5 C 15,0 C 15,0 C 71 % 1017,4 hPa 0,0 l/m 0 min 0 min 0 W/m 3,2 km/h (1 Bft) 100,00 %
29.07.2020 01:22 16,5 C 15,0 C 15,0 C 71 % 1017,4 hPa 0,0 l/m 0 min 0 min 0 W/m 3,2 km/h (1 Bft) 97,87 %
29.07.2020 01:24 16,4 C 15,0 C 15,0 C 71 % 1017,4 hPa 0,0 l/m 0 min 0 min 0 W/m 3,2 km/h (1 Bft) 95,65 %
29.07.2020 01:26 16,4 C 14,4 C 14,4 C 71 % 1017,4 hPa 0,0 l/m 0 min 0 min 0 W/m 3,2 km/h (1 Bft) 97,87 %
29.07.2020 01:28 16,4 C 14,4 C 14,4 C 71 % 1017,4 hPa 0,0 l/m 0 min 0 min 0 W/m 6,4 km/h (2 Bft) 95,74 %
29.07.2020 01:30 16,3 C 14,4 C 14,4 C 71 % 1017,4 hPa 0,0 l/m 0 min 0 min 0 W/m 3,2 km/h (1 Bft) 95,74 %
29.07.2020 01:32 16,3 C 14,4 C 14,4 C 71 % 1017,4 hPa 0,0 l/m 0 min 0 min 0 W/m 3,2 km/h (1 Bft) 97,87 %
29.07.2020 01:34 16,3 C 14,4 C 14,4 C 71 % 1017,4 hPa 0,0 l/m 0 min 0 min 0 W/m 3,2 km/h (1 Bft) 97,87 %
29.07.2020 01:36 16,2 C 14,4 C 14,4 C 71 % 1017,5 hPa 0,0 l/m 0 min 0 min 0 W/m 3,2 km/h (1 Bft) 100,00 %
29.07.2020 01:38 16,2 C 14,4 C 14,4 C 71 % 1017,5 hPa 0,0 l/m 0 min 0 min 0 W/m 3,2 km/h (1 Bft) 97,87 %
29.07.2020 01:40 16,2 C 14,4 C 14,4 C 71 % 1017,5 hPa 0,0 l/m 0 min 0 min 0 W/m 3,2 km/h (1 Bft) 97,87 %
29.07.2020 01:42 16,2 C 14,4 C 14,4 C 72 % 1017,5 hPa 0,0 l/m 0 min 0 min 0 W/m 3,2 km/h (1 Bft) 93,62 %
29.07.2020 01:44 16,1 C 14,4 C 14,4 C 72 % 1017,5 hPa 0,0 l/m 0 min 0 min 0 W/m 3,2 km/h (1 Bft) 97,87 %
29.07.2020 01:46 16,1 C 14,4 C 14,4 C 72 % 1017,5 hPa 0,0 l/m 0 min 0 min 0 W/m 3,2 km/h (1 Bft) 97,87 %
29.07.2020 01:48 16,1 C 14,4 C 14,4 C 72 % 1017,5 hPa 0,0 l/m 0 min 0 min 0 W/m 0,0 km/h (0 Bft) 95,65 %
29.07.2020 01:50 16,1 C 14,4 C 14,4 C 72 % 1017,5 hPa 0,0 l/m 0 min 0 min 0 W/m 0,0 km/h (0 Bft) 95,74 %
29.07.2020 01:52 16,0 C 14,4 C 14,4 C 72 % 1017,5 hPa 0,0 l/m 0 min 0 min 0 W/m 6,4 km/h (2 Bft) 93,62 %
29.07.2020 01:54 16,0 C 14,4 C 14,4 C 72 % 1017,5 hPa 0,0 l/m 0 min 0 min 0 W/m 3,2 km/h (1 Bft) 95,74 %
29.07.2020 01:56 16,0 C 14,4 C 14,4 C 72 % 1017,5 hPa 0,0 l/m 0 min 0 min 0 W/m 3,2 km/h (1 Bft) 89,36 %
29.07.2020 01:58 15,9 C 15,0 C 14,4 C 72 % 1017,5 hPa 0,0 l/m 0 min 0 min 0 W/m 3,2 km/h (1 Bft) 93,48 %
29.07.2020 02:00 15,9 C 15,0 C 14,4 C 72 % 1017,5 hPa 0,0 l/m 0 min 0 min 0 W/m 3,2 km/h (1 Bft) 95,74 %
29.07.2020 02:02 15,9 C 15,0 C 14,4 C 72 % 1017,5 hPa 0,0 l/m 0 min 0 min 0 W/m 3,2 km/h (1 Bft) 97,87 %
29.07.2020 02:04 15,9 C 15,0 C 14,4 C 72 % 1017,6 hPa 0,0 l/m 0 min 0 min 0 W/m 3,2 km/h (1 Bft) 95,74 %
29.07.2020 02:06 15,9 C 15,0 C 15,0 C 72 % 1017,5 hPa 0,0 l/m 0 min 0 min 0 W/m 0,0 km/h (0 Bft) 93,62 %
29.07.2020 02:08 15,9 C 15,0 C 15,0 C 72 % 1017,6 hPa 0,0 l/m 0 min 0 min 0 W/m 3,2 km/h (1 Bft) 95,74 %
29.07.2020 02:10 15,8 C 15,0 C 15,0 C 72 % 1017,6 hPa 0,0 l/m 0 min 0 min 0 W/m 6,4 km/h (2 Bft) 95,65 %
29.07.2020 02:12 15,8 C 15,0 C 15,0 C 72 % 1017,6 hPa 0,0 l/m 0 min 0 min 0 W/m 6,4 km/h (2 Bft) 95,74 %
29.07.2020 02:14 15,8 C 15,0 C 15,0 C 72 % 1017,6 hPa 0,0 l/m 0 min 0 min 0 W/m 3,2 km/h (1 Bft) 95,74 %
29.07.2020 02:16 15,8 C 15,0 C 15,0 C 72 % 1017,6 hPa 0,0 l/m 0 min 0 min 0 W/m 6,4 km/h (2 Bft) 95,74 %
29.07.2020 02:18 15,8 C 15,0 C 15,0 C 72 % 1017,6 hPa 0,0 l/m 0 min 0 min 0 W/m 6,4 km/h (2 Bft) 97,87 %
29.07.2020 02:20 15,8 C 15,0 C 15,0 C 72 % 1017,6 hPa 0,0 l/m 0 min 0 min 0 W/m 6,4 km/h (2 Bft) 97,22 %
29.07.2020 02:22 15,8 C 15,0 C 15,0 C 72 % 1017,5 hPa 0,0 l/m 0 min 0 min 0 W/m 6,4 km/h (2 Bft) 95,74 %
29.07.2020 02:24 15,8 C 15,0 C 15,0 C 72 % 1017,6 hPa 0,0 l/m 0 min 0 min 0 W/m 3,2 km/h (1 Bft) 93,48 %
29.07.2020 02:26 15,8 C 15,0 C 15,0 C 73 % 1017,6 hPa 0,0 l/m 0 min 0 min 0 W/m 3,2 km/h (1 Bft) 97,87 %
29.07.2020 02:28 15,9 C 15,0 C 15,0 C 73 % 1017,5 hPa 0,0 l/m 0 min 0 min 0 W/m 3,2 km/h (1 Bft) 95,74 %
29.07.2020 02:30 15,9 C 15,0 C 15,0 C 73 % 1017,6 hPa 0,0 l/m 0 min 0 min 0 W/m 3,2 km/h (1 Bft) 93,62 %
29.07.2020 02:32 15,9 C 15,0 C 15,0 C 73 % 1017,5 hPa 0,0 l/m 0 min 0 min 0 W/m 6,4 km/h (2 Bft) 53,66 %
29.07.2020 02:34 15,9 C 15,0 C 15,0 C 72 % 1017,5 hPa 0,0 l/m 0 min 0 min 0 W/m 6,4 km/h (2 Bft) 93,62 %
29.07.2020 02:36 15,9 C 15,6 C 15,0 C 72 % 1017,5 hPa 0,0 l/m 0 min 0 min 0 W/m 3,2 km/h (1 Bft) 93,48 %
29.07.2020 02:38 15,9 C 15,6 C 15,0 C 72 % 1017,5 hPa 0,0 l/m 0 min 0 min 0 W/m 3,2 km/h (1 Bft) 95,74 %
29.07.2020 02:40 15,9 C 15,6 C 15,0 C 72 % 1017,5 hPa 0,0 l/m 0 min 0 min 0 W/m 6,4 km/h (2 Bft) 95,74 %
29.07.2020 02:42 15,9 C 15,6 C 15,0 C 72 % 1017,5 hPa 0,0 l/m 0 min 0 min 0 W/m 3,2 km/h (1 Bft) 93,62 %
29.07.2020 02:44 15,9 C 15,0 C 15,0 C 72 % 1017,5 hPa 0,0 l/m 0 min 0 min 0 W/m 3,2 km/h (1 Bft) 95,74 %
29.07.2020 02:46 15,9 C 15,0 C 15,0 C 72 % 1017,5 hPa 0,0 l/m 0 min 0 min 0 W/m 3,2 km/h (1 Bft) 95,74 %
29.07.2020 02:48 16,0 C 15,0 C 15,0 C 73 % 1017,5 hPa 0,0 l/m 0 min 0 min 0 W/m 3,2 km/h (1 Bft) 95,65 %
29.07.2020 02:50 16,0 C 15,0 C 15,0 C 73 % 1017,5 hPa 0,0 l/m 0 min 0 min 0 W/m 6,4 km/h (2 Bft) 93,62 %
29.07.2020 02:52 16,0 C 15,0 C 15,0 C 73 % 1017,5 hPa 0,0 l/m 0 min 0 min 0 W/m 6,4 km/h (2 Bft) 91,49 %
29.07.2020 02:54 16,0 C 15,6 C 15,0 C 73 % 1017,5 hPa 0,0 l/m 0 min 0 min 0 W/m 6,4 km/h (2 Bft) 97,87 %
29.07.2020 02:56 16,0 C 15,0 C 15,0 C 73 % 1017,5 hPa 0,0 l/m 0 min 0 min 0 W/m 6,4 km/h (2 Bft) 97,87 %
29.07.2020 02:58 16,1 C 15,0 C 15,0 C 73 % 1017,4 hPa 0,0 l/m 0 min 0 min 0 W/m 6,4 km/h (2 Bft) 97,87 %
29.07.2020 03:00 16,1 C 15,0 C 15,0 C 73 % 1017,4 hPa 0,0 l/m 0 min 0 min 0 W/m 6,4 km/h (2 Bft) 95,65 %
29.07.2020 03:02 16,1 C 15,0 C 15,0 C 73 % 1017,4 hPa 0,0 l/m 0 min 0 min 0 W/m 3,2 km/h (1 Bft) 95,74 %
29.07.2020 03:04 16,1 C 15,0 C 15,0 C 73 % 1017,4 hPa 0,0 l/m 0 min 0 min 0 W/m 6,4 km/h (2 Bft) 97,87 %
29.07.2020 03:06 16,1 C 15,0 C 15,0 C 73 % 1017,4 hPa 0,0 l/m 0 min 0 min 0 W/m 16,1 km/h (3 Bft) 97,87 %
29.07.2020 03:08 16,1 C 15,0 C 15,0 C 73 % 1017,4 hPa 0,0 l/m 0 min 0 min 0 W/m 9,7 km/h (2 Bft) 97,87 %
29.07.2020 03:10 16,1 C 15,0 C 15,0 C 73 % 1017,5 hPa 0,0 l/m 0 min 0 min 0 W/m 6,4 km/h (2 Bft) 95,65 %
29.07.2020 03:12 16,1 C 15,0 C 15,0 C 73 % 1017,4 hPa 0,0 l/m 0 min 0 min 0 W/m 3,2 km/h (1 Bft) 97,87 %
29.07.2020 03:14 16,1 C 15,0 C 15,0 C 74 % 1017,5 hPa 0,0 l/m 0 min 0 min 0 W/m 6,4 km/h (2 Bft) 100,00 %
29.07.2020 03:16 16,1 C 15,0 C 15,0 C 74 % 1017,4 hPa 0,0 l/m 0 min 0 min 0 W/m 6,4 km/h (2 Bft) 100,00 %
29.07.2020 03:18 16,1 C 15,0 C 15,0 C 74 % 1017,5 hPa 0,0 l/m 0 min 0 min 0 W/m 6,4 km/h (2 Bft) 100,00 %
29.07.2020 03:20 16,1 C 15,0 C 15,0 C 74 % 1017,5 hPa 0,0 l/m 0 min 0 min 0 W/m 3,2 km/h (1 Bft) 97,87 %
29.07.2020 03:22 16,1 C 15,0 C 15,0 C 74 % 1017,4 hPa 0,0 l/m 0 min 0 min 0 W/m 6,4 km/h (2 Bft) 100,00 %
29.07.2020 03:24 16,1 C 15,0 C 15,0 C 74 % 1017,4 hPa 0,0 l/m 0 min 0 min 0 W/m 6,4 km/h (2 Bft) 100,00 %
29.07.2020 03:26 16,1 C 15,0 C 15,0 C 74 % 1017,4 hPa 0,0 l/m 0 min 0 min 0 W/m 6,4 km/h (2 Bft) 100,00 %
29.07.2020 03:28 16,1 C 14,4 C 15,0 C 74 % 1017,5 hPa 0,0 l/m 0 min 0 min 0 W/m 3,2 km/h (1 Bft) 100,00 %
29.07.2020 03:30 16,1 C 14,4 C 15,0 C 74 % 1017,5 hPa 0,0 l/m 0 min 0 min 0 W/m 6,4 km/h (2 Bft) 100,00 %
29.07.2020 03:32 16,1 C 14,4 C 14,4 C 74 % 1017,5 hPa 0,0 l/m 0 min 0 min 0 W/m 3,2 km/h (1 Bft) 100,00 %
29.07.2020 03:34 16,1 C 14,4 C 14,4 C 74 % 1017,5 hPa 0,0 l/m 0 min 0 min 0 W/m 3,2 km/h (1 Bft) 97,83 %
29.07.2020 03:36 16,0 C 14,4 C 14,4 C 74 % 1017,5 hPa 0,0 l/m 0 min 0 min 0 W/m 3,2 km/h (1 Bft) 97,87 %
29.07.2020 03:38 16,0 C 14,4 C 14,4 C 74 % 1017,5 hPa 0,0 l/m 0 min 0 min 0 W/m 9,7 km/h (2 Bft) 97,87 %
29.07.2020 03:40 16,0 C 14,4 C 14,4 C 74 % 1017,5 hPa 0,0 l/m 0 min 0 min 0 W/m 9,7 km/h (2 Bft) 100,00 %
29.07.2020 03:42 15,9 C 14,4 C 14,4 C 75 % 1017,5 hPa 0,0 l/m 0 min 0 min 0 W/m 9,7 km/h (2 Bft) 97,87 %
29.07.2020 03:44 15,9 C 14,4 C 14,4 C 75 % 1017,6 hPa 0,0 l/m 0 min 0 min 0 W/m 6,4 km/h (2 Bft) 100,00 %
29.07.2020 03:46 15,9 C 14,4 C 14,4 C 75 % 1017,5 hPa 0,0 l/m 0 min 0 min 0 W/m 3,2 km/h (1 Bft) 100,00 %
29.07.2020 03:48 15,9 C 14,4 C 14,4 C 75 % 1017,5 hPa 0,0 l/m 0 min 0 min 0 W/m 12,9 km/h (3 Bft) 100,00 %
29.07.2020 03:50 15,9 C 14,4 C 14,4 C 75 % 1017,5 hPa 0,0 l/m 0 min 0 min 0 W/m 6,4 km/h (2 Bft) 100,00 %
29.07.2020 03:52 15,8 C 14,4 C 14,4 C 75 % 1017,5 hPa 0,0 l/m 0 min 0 min 0 W/m 6,4 km/h (2 Bft) 100,00 %
29.07.2020 03:54 15,8 C 14,4 C 14,4 C 75 % 1017,5 hPa 0,0 l/m 0 min 0 min 0 W/m 3,2 km/h (1 Bft) 100,00 %
29.07.2020 03:56 15,8 C 14,4 C 14,4 C 75 % 1017,6 hPa 0,0 l/m 0 min 0 min 0 W/m 9,7 km/h (2 Bft) 95,74 %
29.07.2020 03:58 15,8 C 14,4 C 14,4 C 76 % 1017,6 hPa 0,0 l/m 0 min 0 min 0 W/m 9,7 km/h (2 Bft) 100,00 %
29.07.2020 04:00 15,8 C 14,4 C 14,4 C 76 % 1017,6 hPa 0,0 l/m 0 min 0 min 0 W/m 9,7 km/h (2 Bft) 100,00 %
29.07.2020 04:05 15,7 C 14,4 C 14,4 C 76 % 1017,6 hPa 0,0 l/m 0 min 0 min 0 W/m 6,4 km/h (2 Bft) 100,00 %
29.07.2020 04:06 15,7 C 13,9 C 14,4 C 76 % 1017,6 hPa 0,0 l/m 0 min 0 min 0 W/m 6,4 km/h (2 Bft) 100,00 %
29.07.2020 04:08 15,7 C 13,9 C 13,9 C 76 % 1017,6 hPa 0,0 l/m 0 min 0 min 0 W/m 6,4 km/h (2 Bft) 100,00 %
29.07.2020 04:10 15,6 C 13,9 C 13,9 C 77 % 1017,6 hPa 0,0 l/m 0 min 0 min 0 W/m 6,4 km/h (2 Bft) 100,00 %
29.07.2020 04:12 15,6 C 13,9 C 13,9 C 77 % 1017,6 hPa 0,0 l/m 0 min 0 min 0 W/m 6,4 km/h (2 Bft) 100,00 %
29.07.2020 04:14 15,6 C 13,9 C 13,9 C 77 % 1017,6 hPa 0,0 l/m 0 min 0 min 0 W/m 3,2 km/h (1 Bft) 100,00 %
29.07.2020 04:16 15,6 C 13,9 C 13,9 C 77 % 1017,6 hPa 0,0 l/m 0 min 0 min 0 W/m 6,4 km/h (2 Bft) 97,87 %
29.07.2020 04:18 15,5 C 13,9 C 13,9 C 77 % 1017,6 hPa 0,0 l/m 0 min 0 min 0 W/m 6,4 km/h (2 Bft) 97,87 %
29.07.2020 04:20 15,5 C 13,9 C 13,9 C 77 % 1017,6 hPa 0,0 l/m 0 min 0 min 0 W/m 6,4 km/h (2 Bft) 97,87 %
29.07.2020 04:22 15,4 C 13,9 C 13,9 C 77 % 1017,7 hPa 0,0 l/m 0 min 0 min 0 W/m 3,2 km/h (1 Bft) 94,74 %
29.07.2020 04:24 15,4 C 13,9 C 13,9 C 78 % 1017,7 hPa 0,0 l/m 0 min 0 min 0 W/m 6,4 km/h (2 Bft) 95,74 %
29.07.2020 04:26 15,4 C 13,9 C 13,9 C 78 % 1017,7 hPa 0,0 l/m 0 min 0 min 0 W/m 6,4 km/h (2 Bft) 97,87 %
29.07.2020 04:28 15,3 C 13,9 C 13,9 C 78 % 1017,7 hPa 0,0 l/m 0 min 0 min 0 W/m 6,4 km/h (2 Bft) 97,87 %
29.07.2020 04:30 15,3 C 13,9 C 13,9 C 78 % 1017,7 hPa 0,0 l/m 0 min 0 min 0 W/m 3,2 km/h (1 Bft) 97,83 %
29.07.2020 04:32 15,3 C 13,9 C 13,9 C 78 % 1017,7 hPa 0,0 l/m 0 min 0 min 0 W/m 6,4 km/h (2 Bft) 97,87 %
29.07.2020 04:34 15,3 C 13,9 C 13,9 C 78 % 1017,7 hPa 0,0 l/m 0 min 0 min 0 W/m 6,4 km/h (2 Bft) 95,74 %
29.07.2020 04:36 15,2 C 13,9 C 13,9 C 79 % 1017,7 hPa 0,0 l/m 0 min 0 min 0 W/m 6,4 km/h (2 Bft) 97,87 %
29.07.2020 04:38 15,2 C 13,3 C 13,9 C 79 % 1017,8 hPa 0,0 l/m 0 min 0 min 0 W/m 6,4 km/h (2 Bft) 97,87 %
29.07.2020 04:40 15,2 C 13,3 C 13,9 C 79 % 1017,7 hPa 0,0 l/m 0 min 0 min 0 W/m 6,4 km/h (2 Bft) 97,87 %
29.07.2020 04:42 15,1 C 13,3 C 13,9 C 79 % 1017,8 hPa 0,0 l/m 0 min 0 min 0 W/m 3,2 km/h (1 Bft) 97,83 %
29.07.2020 04:44 15,1 C 13,3 C 13,3 C 79 % 1017,8 hPa 0,0 l/m 0 min 0 min 0 W/m 6,4 km/h (2 Bft) 97,87 %
29.07.2020 04:46 15,1 C 13,3 C 13,3 C 80 % 1017,8 hPa 0,0 l/m 0 min 0 min 0 W/m 3,2 km/h (1 Bft) 97,87 %
29.07.2020 04:48 15,1 C 13,3 C 13,3 C 80 % 1017,8 hPa 0,0 l/m 0 min 0 min 0 W/m 6,4 km/h (2 Bft) 95,74 %
29.07.2020 04:50 15,0 C 13,3 C 13,3 C 80 % 1017,8 hPa 0,0 l/m 0 min 0 min 0 W/m 6,4 km/h (2 Bft) 93,62 %
29.07.2020 04:52 15,0 C 13,3 C 13,3 C 80 % 1017,8 hPa 0,0 l/m 0 min 0 min 0 W/m 3,2 km/h (1 Bft) 95,74 %
29.07.2020 04:54 14,9 C 13,3 C 13,3 C 80 % 1017,9 hPa 0,0 l/m 0 min 0 min 0 W/m 6,4 km/h (2 Bft) 97,83 %
29.07.2020 04:56 14,9 C 13,3 C 13,3 C 80 % 1017,9 hPa 0,0 l/m 0 min 0 min 0 W/m 6,4 km/h (2 Bft) 95,74 %
29.07.2020 04:58 14,9 C 13,3 C 13,3 C 80 % 1017,9 hPa 0,0 l/m 0 min 0 min 0 W/m 3,2 km/h (1 Bft) 93,62 %
29.07.2020 05:00 14,8 C 13,3 C 13,3 C 80 % 1017,9 hPa 0,0 l/m 0 min 0 min 0 W/m 3,2 km/h (1 Bft) 95,74 %
29.07.2020 05:02 14,8 C 13,3 C 13,3 C 81 % 1017,9 hPa 0,0 l/m 0 min 0 min 0 W/m 6,4 km/h (2 Bft) 95,74 %
29.07.2020 05:04 14,8 C 13,3 C 13,3 C 81 % 1017,9 hPa 0,0 l/m 0 min 0 min 0 W/m 3,2 km/h (1 Bft) 95,65 %
29.07.2020 05:06 14,7 C 12,8 C 13,3 C 81 % 1017,9 hPa 0,0 l/m 0 min 0 min 0 W/m 3,2 km/h (1 Bft) 95,74 %
29.07.2020 05:08 14,7 C 13,3 C 13,3 C 81 % 1017,9 hPa 0,0 l/m 0 min 0 min 0 W/m 3,2 km/h (1 Bft) 97,87 %
29.07.2020 05:10 14,7 C 13,3 C 13,3 C 81 % 1017,9 hPa 0,0 l/m 0 min 0 min 0 W/m 6,4 km/h (2 Bft) 95,74 %
29.07.2020 05:12 14,6 C 13,3 C 13,3 C 81 % 1017,9 hPa 0,0 l/m 0 min 0 min 0 W/m 3,2 km/h (1 Bft) 95,74 %
29.07.2020 05:14 14,6 C 13,3 C 13,3 C 81 % 1017,9 hPa 0,0 l/m 0 min 0 min 0 W/m 3,2 km/h (1 Bft) 95,74 %
29.07.2020 05:16 14,6 C 13,3 C 13,3 C 81 % 1018,0 hPa 0,0 l/m 0 min 0 min 0 W/m 3,2 km/h (1 Bft) 97,83 %
29.07.2020 05:18 14,6 C 12,8 C 13,3 C 82 % 1018,0 hPa 0,0 l/m 0 min 0 min 0 W/m 3,2 km/h (1 Bft) 97,87 %
29.07.2020 05:20 14,6 C 12,8 C 13,3 C 82 % 1018,0 hPa 0,0 l/m 0 min 0 min 0 W/m 3,2 km/h (1 Bft) 95,74 %
29.07.2020 05:22 14,5 C 12,8 C 12,8 C 82 % 1018,0 hPa 0,0 l/m 0 min 0 min 0 W/m 6,4 km/h (2 Bft) 97,87 %
29.07.2020 05:24 14,5 C 12,8 C 13,3 C 82 % 1018,1 hPa 0,0 l/m 0 min 0 min 0 W/m 3,2 km/h (1 Bft) 95,74 %
29.07.2020 05:26 14,4 C 12,8 C 12,8 C 82 % 1018,1 hPa 0,0 l/m 0 min 0 min 0 W/m 3,2 km/h (1 Bft) 97,87 %
29.07.2020 05:28 14,4 C 12,8 C 13,3 C 83 % 1018,1 hPa 0,0 l/m 0 min 0 min 0 W/m 3,2 km/h (1 Bft) 97,83 %
29.07.2020 05:30 14,4 C 12,8 C 13,3 C 83 % 1018,2 hPa 0,0 l/m 0 min 0 min 0 W/m 6,4 km/h (2 Bft) 97,87 %
29.07.2020 05:32 14,3 C 12,8 C 13,3 C 83 % 1018,2 hPa 0,0 l/m 0 min 0 min 0 W/m 6,4 km/h (2 Bft) 97,87 %
29.07.2020 05:34 14,3 C 12,8 C 13,3 C 83 % 1018,1 hPa 0,0 l/m 0 min 0 min 0 W/m 6,4 km/h (2 Bft) 97,87 %
29.07.2020 05:36 14,3 C 12,8 C 13,3 C 83 % 1018,1 hPa 0,0 l/m 0 min 0 min 0 W/m 3,2 km/h (1 Bft) 97,87 %
29.07.2020 05:38 14,3 C 12,8 C 13,3 C 83 % 1018,1 hPa 0,0 l/m 0 min 0 min 0 W/m 3,2 km/h (1 Bft) 97,87 %
29.07.2020 05:40 14,3 C 12,8 C 13,3 C 83 % 1018,3 hPa 0,0 l/m 0 min 0 min 0 W/m 6,4 km/h (2 Bft) 97,83 %
29.07.2020 05:42 14,3 C 12,8 C 13,3 C 83 % 1018,2 hPa 0,0 l/m 0 min 0 min 0 W/m 3,2 km/h (1 Bft) 97,87 %
29.07.2020 05:44 14,3 C 12,8 C 13,3 C 84 % 1018,2 hPa 0,0 l/m 0 min 0 min 0 W/m 3,2 km/h (1 Bft) 97,87 %
29.07.2020 05:46 14,3 C 12,8 C 13,3 C 84 % 1018,2 hPa 0,0 l/m 0 min 0 min 0 W/m 6,4 km/h (2 Bft) 100,00 %
29.07.2020 05:48 14,3 C 12,8 C 13,3 C 84 % 1018,2 hPa 0,0 l/m 0 min 0 min 0 W/m 9,7 km/h (2 Bft) 97,87 %
29.07.2020 05:50 14,3 C 12,8 C 13,3 C 84 % 1018,2 hPa 0,0 l/m 0 min 0 min 0 W/m 6,4 km/h (2 Bft) 97,87 %
29.07.2020 05:52 14,3 C 12,8 C 13,3 C 84 % 1018,3 hPa 0,0 l/m 0 min 0 min 0 W/m 6,4 km/h (2 Bft) 97,83 %
29.07.2020 05:54 14,3 C 12,8 C 12,8 C 84 % 1018,2 hPa 0,0 l/m 0 min 0 min 0 W/m 6,4 km/h (2 Bft) 95,74 %
29.07.2020 05:56 14,3 C 12,8 C 12,8 C 85 % 1018,2 hPa 0,0 l/m 0 min 0 min 0 W/m 6,4 km/h (2 Bft) 97,87 %
29.07.2020 05:58 14,3 C 12,8 C 12,8 C 85 % 1018,3 hPa 0,0 l/m 0 min 0 min 0 W/m 3,2 km/h (1 Bft) 97,87 %
29.07.2020 06:00 14,3 C 12,8 C 12,8 C 85 % 1018,3 hPa 0,0 l/m 0 min 0 min 0 W/m 6,4 km/h (2 Bft) 95,74 %
29.07.2020 06:02 14,3 C 12,8 C 12,8 C 85 % 1018,3 hPa 0,0 l/m 0 min 0 min 0 W/m 6,4 km/h (2 Bft) 93,62 %
29.07.2020 06:04 14,3 C 12,8 C 12,8 C 85 % 1018,3 hPa 0,0 l/m 0 min 0 min 3 W/m 3,2 km/h (1 Bft) 97,83 %
29.07.2020 06:08 14,2 C 12,8 C 12,8 C 85 % 1018,4 hPa 0,0 l/m 0 min 0 min 5 W/m 6,4 km/h (2 Bft) 95,74 %
29.07.2020 06:10 14,2 C 12,8 C 12,8 C 85 % 1018,4 hPa 0,0 l/m 0 min 0 min 7 W/m 12,9 km/h (3 Bft) 95,74 %
29.07.2020 06:12 14,2 C 12,8 C 12,8 C 85 % 1018,4 hPa 0,0 l/m 0 min 0 min 7 W/m 6,4 km/h (2 Bft) 97,87 %
29.07.2020 06:14 14,1 C 12,8 C 12,8 C 85 % 1018,5 hPa 0,0 l/m 0 min 0 min 9 W/m 6,4 km/h (2 Bft) 97,83 %
29.07.2020 06:16 14,1 C 12,8 C 12,8 C 85 % 1018,5 hPa 0,0 l/m 0 min 0 min 10 W/m 6,4 km/h (2 Bft) 97,87 %
29.07.2020 06:18 14,1 C 12,8 C 12,8 C 85 % 1018,4 hPa 0,0 l/m 0 min 0 min 12 W/m 6,4 km/h (2 Bft) 97,87 %
29.07.2020 06:20 14,1 C 12,8 C 12,8 C 86 % 1018,5 hPa 0,0 l/m 0 min 0 min 12 W/m 12,9 km/h (3 Bft) 97,87 %
29.07.2020 06:22 14,1 C 12,8 C 12,8 C 86 % 1018,5 hPa 0,0 l/m 0 min 0 min 12 W/m 12,9 km/h (3 Bft) 97,87 %
29.07.2020 06:24 14,1 C 13,3 C 13,3 C 86 % 1018,5 hPa 0,0 l/m 0 min 0 min 12 W/m 6,4 km/h (2 Bft) 97,78 %
29.07.2020 06:26 14,0 C 13,3 C 13,3 C 86 % 1018,5 hPa 0,0 l/m 0 min 0 min 11 W/m 6,4 km/h (2 Bft) 97,87 %
29.07.2020 06:28 14,0 C 13,3 C 13,3 C 86 % 1018,6 hPa 0,0 l/m 0 min 0 min 11 W/m 6,4 km/h (2 Bft) 97,83 %
29.07.2020 06:30 14,0 C 13,3 C 13,3 C 86 % 1018,6 hPa 0,0 l/m 0 min 0 min 12 W/m 6,4 km/h (2 Bft) 97,87 %
29.07.2020 06:32 14,0 C 13,3 C 13,3 C 86 % 1018,6 hPa 0,0 l/m 0 min 0 min 14 W/m 6,4 km/h (2 Bft) 97,92 %
29.07.2020 06:34 14,1 C 13,3 C 13,3 C 86 % 1018,6 hPa 0,0 l/m 0 min 0 min 14 W/m 6,4 km/h (2 Bft) 97,87 %
29.07.2020 06:36 14,1 C 13,3 C 13,3 C 87 % 1018,6 hPa 0,0 l/m 0 min 0 min 16 W/m 12,9 km/h (3 Bft) 97,87 %
29.07.2020 06:38 14,1 C 13,3 C 13,3 C 87 % 1018,7 hPa 0,0 l/m 0 min 0 min 18 W/m 6,4 km/h (2 Bft) 97,83 %
29.07.2020 06:40 14,1 C 13,3 C 13,3 C 87 % 1018,7 hPa 0,0 l/m 0 min 0 min 21 W/m 6,4 km/h (2 Bft) 95,74 %
29.07.2020 06:42 14,1 C 13,3 C 13,3 C 87 % 1018,7 hPa 0,0 l/m 0 min 0 min 24 W/m 9,7 km/h (2 Bft) 97,87 %
29.07.2020 06:44 14,1 C 13,3 C 13,3 C 87 % 1018,7 hPa 0,0 l/m 0 min 0 min 25 W/m 6,4 km/h (2 Bft) 95,74 %
29.07.2020 06:46 14,1 C 13,3 C 13,3 C 87 % 1018,8 hPa 0,0 l/m 0 min 0 min 26 W/m 6,4 km/h (2 Bft) 97,87 %
29.07.2020 06:48 14,1 C 13,3 C 13,3 C 87 % 1018,8 hPa 0,0 l/m 0 min 0 min 29 W/m 12,9 km/h (3 Bft) 97,87 %
29.07.2020 06:50 14,1 C 13,9 C 13,3 C 87 % 1018,8 hPa 0,0 l/m 0 min 0 min 30 W/m 12,9 km/h (3 Bft) 97,83 %
29.07.2020 06:52 14,1 C 13,9 C 13,3 C 87 % 1018,9 hPa 0,0 l/m 0 min 0 min 30 W/m 19,3 km/h (3 Bft) 95,74 %
29.07.2020 06:54 14,1 C 13,9 C 13,9 C 87 % 1018,8 hPa 0,0 l/m 0 min 0 min 32 W/m 9,7 km/h (2 Bft) 97,87 %
29.07.2020 06:56 14,2 C 13,9 C 13,9 C 87 % 1018,9 hPa 0,0 l/m 0 min 0 min 33 W/m 12,9 km/h (3 Bft) 97,87 %
29.07.2020 06:58 14,2 C 13,9 C 13,3 C 87 % 1018,9 hPa 0,0 l/m 0 min 0 min 33 W/m 9,7 km/h (2 Bft) 97,87 %
29.07.2020 07:00 14,2 C 13,9 C 13,3 C 87 % 1018,9 hPa 0,0 l/m 0 min 0 min 36 W/m 6,4 km/h (2 Bft) 100,00 %
29.07.2020 07:02 14,2 C 13,9 C 13,9 C 87 % 1019,0 hPa 0,0 l/m 0 min 0 min 39 W/m 9,7 km/h (2 Bft) 97,83 %
29.07.2020 07:04 14,2 C 13,9 C 13,9 C 88 % 1019,0 hPa 0,0 l/m 0 min 0 min 44 W/m 9,7 km/h (2 Bft) 100,00 %
29.07.2020 07:06 14,3 C 13,9 C 13,9 C 88 % 1019,0 hPa 0,0 l/m 0 min 0 min 46 W/m 9,7 km/h (2 Bft) 97,87 %
29.07.2020 07:08 14,3 C 13,9 C 13,9 C 87 % 1019,0 hPa 0,0 l/m 0 min 0 min 46 W/m 12,9 km/h (3 Bft) 100,00 %
29.07.2020 07:10 14,3 C 13,9 C 13,9 C 87 % 1019,1 hPa 0,0 l/m 0 min 0 min 44 W/m 9,7 km/h (2 Bft) 100,00 %
29.07.2020 07:12 14,3 C 13,9 C 13,9 C 87 % 1019,1 hPa 0,0 l/m 0 min 0 min 46 W/m 9,7 km/h (2 Bft) 95,74 %
29.07.2020 07:14 14,3 C 13,9 C 13,9 C 87 % 1019,2 hPa 0,0 l/m 0 min 0 min 46 W/m 9,7 km/h (2 Bft) 97,83 %
29.07.2020 07:16 14,3 C 13,9 C 13,9 C 87 % 1019,2 hPa 0,0 l/m 0 min 0 min 44 W/m 9,7 km/h (2 Bft) 93,75 %
29.07.2020 07:18 14,3 C 13,9 C 13,9 C 87 % 1019,2 hPa 0,0 l/m 0 min 0 min 39 W/m 16,1 km/h (3 Bft) 97,87 %
29.07.2020 07:20 14,3 C 13,9 C 13,9 C 87 % 1019,1 hPa 0,0 l/m 0 min 0 min 31 W/m 9,7 km/h (2 Bft) 97,87 %
29.07.2020 07:22 14,3 C 13,9 C 13,9 C 87 % 1019,3 hPa 0,0 l/m 0 min 0 min 28 W/m 12,9 km/h (3 Bft) 95,74 %
29.07.2020 07:24 14,3 C 13,9 C 13,3 C 87 % 1019,3 hPa 0,0 l/m 0 min 0 min 31 W/m 3,2 km/h (1 Bft) 95,65 %
29.07.2020 07:26 14,3 C 13,9 C 13,3 C 87 % 1019,3 hPa 0,0 l/m 0 min 0 min 32 W/m 6,4 km/h (2 Bft) 95,56 %
29.07.2020 07:28 14,3 C 13,3 C 13,3 C 87 % 1019,2 hPa 0,0 l/m 0 min 0 min 27 W/m 6,4 km/h (2 Bft) 95,74 %
29.07.2020 07:30 14,3 C 13,3 C 13,3 C 87 % 1019,2 hPa 0,0 l/m 0 min 0 min 30 W/m 12,9 km/h (3 Bft) 95,74 %
29.07.2020 07:32 14,3 C 13,3 C 13,3 C 87 % 1019,3 hPa 0,0 l/m 0 min 0 min 32 W/m 16,1 km/h (3 Bft) 97,87 %
29.07.2020 07:34 14,3 C 13,3 C 13,3 C 87 % 1019,3 hPa 0,0 l/m 0 min 0 min 32 W/m 6,4 km/h (2 Bft) 97,87 %
29.07.2020 07:36 14,3 C 13,9 C 13,3 C 87 % 1019,3 hPa 0,0 l/m 0 min 0 min 32 W/m 12,9 km/h (3 Bft) 95,65 %
29.07.2020 07:38 14,3 C 13,9 C 13,3 C 87 % 1019,3 hPa 0,0 l/m 0 min 0 min 33 W/m 9,7 km/h (2 Bft) 93,62 %
29.07.2020 07:40 14,3 C 13,9 C 13,3 C 87 % 1019,3 hPa 0,0 l/m 0 min 0 min 33 W/m 6,4 km/h (2 Bft) 95,74 %
29.07.2020 07:42 14,3 C 13,9 C 13,3 C 88 % 1019,3 hPa 0,0 l/m 0 min 0 min 34 W/m 9,7 km/h (2 Bft) 93,62 %
29.07.2020 07:44 14,3 C 13,9 C 13,3 C 88 % 1019,3 hPa 0,0 l/m 0 min 0 min 35 W/m 9,7 km/h (2 Bft) 95,74 %
29.07.2020 07:46 14,3 C 13,9 C 13,3 C 88 % 1019,3 hPa 0,0 l/m 0 min 0 min 35 W/m 19,3 km/h (3 Bft) 91,49 %
29.07.2020 07:48 14,3 C 13,9 C 13,3 C 88 % 1019,4 hPa 0,0 l/m 0 min 0 min 37 W/m 12,9 km/h (3 Bft) 93,48 %
29.07.2020 07:50 14,3 C 13,9 C 13,3 C 88 % 1019,4 hPa 0,0 l/m 0 min 0 min 37 W/m 12,9 km/h (3 Bft) 95,74 %
29.07.2020 07:52 14,3 C 13,9 C 13,3 C 88 % 1019,4 hPa 0,0 l/m 0 min 0 min 39 W/m 12,9 km/h (3 Bft) 93,62 %
29.07.2020 07:54 14,3 C 13,9 C 13,9 C 88 % 1019,5 hPa 0,0 l/m 0 min 0 min 39 W/m 6,4 km/h (2 Bft) 95,74 %
29.07.2020 07:56 14,3 C 13,9 C 13,9 C 88 % 1019,5 hPa 0,0 l/m 0 min 0 min 40 W/m 6,4 km/h (2 Bft) 95,74 %
29.07.2020 07:58 14,3 C 13,9 C 13,9 C 88 % 1019,5 hPa 0,0 l/m 0 min 0 min 40 W/m 9,7 km/h (2 Bft) 97,87 %
29.07.2020 08:00 14,3 C 13,9 C 13,9 C 88 % 1019,5 hPa 0,0 l/m 0 min 0 min 42 W/m 16,1 km/h (3 Bft) 97,83 %
29.07.2020 08:02 14,3 C 14,4 C 13,9 C 88 % 1019,5 hPa 0,0 l/m 0 min 0 min 42 W/m 12,9 km/h (3 Bft) 97,87 %
29.07.2020 08:04 14,3 C 14,4 C 13,9 C 88 % 1019,6 hPa 0,0 l/m 0 min 0 min 44 W/m 12,9 km/h (3 Bft) 95,74 %
29.07.2020 08:06 14,3 C 14,4 C 13,9 C 88 % 1019,6 hPa 0,0 l/m 0 min 0 min 45 W/m 6,4 km/h (2 Bft) 97,87 %
29.07.2020 08:08 14,4 C 14,4 C 13,9 C 88 % 1019,6 hPa 0,0 l/m 0 min 0 min 47 W/m 9,7 km/h (2 Bft) 93,62 %
29.07.2020 08:10 14,4 C 14,4 C 13,9 C 88 % 1019,7 hPa 0,0 l/m 0 min 0 min 48 W/m 6,4 km/h (2 Bft) 97,83 %
29.07.2020 08:12 14,5 C 14,4 C 13,9 C 88 % 1019,7 hPa 0,0 l/m 0 min 0 min 50 W/m 3,2 km/h (1 Bft) 93,62 %
29.07.2020 08:14 14,5 C 14,4 C 13,9 C 88 % 1019,7 hPa 0,0 l/m 0 min 0 min 51 W/m 6,4 km/h (2 Bft) 95,74 %
29.07.2020 08:16 14,6 C 14,4 C 13,9 C 88 % 1019,7 hPa 0,0 l/m 0 min 0 min 51 W/m 19,3 km/h (3 Bft) 97,87 %
29.07.2020 08:18 14,6 C 14,4 C 14,4 C 88 % 1019,7 hPa 0,0 l/m 0 min 0 min 53 W/m 9,7 km/h (2 Bft) 97,87 %
29.07.2020 08:20 14,6 C 15,0 C 14,4 C 88 % 1019,7 hPa 0,0 l/m 0 min 0 min 53 W/m 6,4 km/h (2 Bft) 97,87 %
29.07.2020 08:22 14,6 C 15,0 C 14,4 C 88 % 1019,7 hPa 0,0 l/m 0 min 0 min 54 W/m 6,4 km/h (2 Bft) 97,83 %
29.07.2020 08:24 14,7 C 16,1 C 14,4 C 88 % 1019,7 hPa 0,0 l/m 0 min 0 min 56 W/m 16,1 km/h (3 Bft) 97,87 %
29.07.2020 08:26 14,7 C 17,2 C 14,4 C 88 % 1019,7 hPa 0,0 l/m 0 min 0 min 57 W/m 6,4 km/h (2 Bft) 100,00 %
29.07.2020 08:28 14,8 C 18,3 C 14,4 C 87 % 1019,7 hPa 0,0 l/m 0 min 0 min 59 W/m 9,7 km/h (2 Bft) 100,00 %
29.07.2020 08:30 14,8 C 18,9 C 14,4 C 87 % 1019,7 hPa 0,0 l/m 0 min 0 min 60 W/m 9,7 km/h (2 Bft) 100,00 %
29.07.2020 08:32 14,9 C 19,4 C 14,4 C 87 % 1019,8 hPa 0,0 l/m 0 min 0 min 62 W/m 12,9 km/h (3 Bft) 100,00 %
29.07.2020 08:34 14,9 C 20,0 C 14,4 C 87 % 1019,8 hPa 0,0 l/m 0 min 0 min 63 W/m 6,4 km/h (2 Bft) 100,00 %
29.07.2020 08:36 15,1 C 20,6 C 14,4 C 87 % 1019,9 hPa 0,0 l/m 0 min 0 min 64 W/m 6,4 km/h (2 Bft) 97,87 %
29.07.2020 08:38 15,2 C 20,6 C 15,0 C 87 % 1019,9 hPa 0,0 l/m 0 min 0 min 68 W/m 6,4 km/h (2 Bft) 97,87 %
29.07.2020 08:40 15,3 C 21,1 C 15,0 C 87 % 1019,9 hPa 0,0 l/m 0 min 0 min 75 W/m 9,7 km/h (2 Bft) 100,00 %
29.07.2020 08:42 15,4 C 21,1 C 15,0 C 86 % 1019,9 hPa 0,0 l/m 0 min 0 min 87 W/m 6,4 km/h (2 Bft) 100,00 %
29.07.2020 08:44 15,6 C 21,1 C 15,0 C 86 % 1020,0 hPa 0,0 l/m 0 min 0 min 101 W/m 9,7 km/h (2 Bft) 100,00 %
29.07.2020 08:46 15,7 C 21,1 C 15,6 C 85 % 1019,9 hPa 0,0 l/m 0 min 0 min 120 W/m 6,4 km/h (2 Bft) 100,00 %
29.07.2020 08:48 15,9 C 21,7 C 15,6 C 85 % 1020,0 hPa 0,0 l/m 0 min 0 min 151 W/m 6,4 km/h (2 Bft) 95,74 %
29.07.2020 08:50 16,1 C 21,7 C 16,1 C 84 % 1020,0 hPa 0,0 l/m 0 min 0 min 180 W/m 6,4 km/h (2 Bft) 100,00 %
29.07.2020 08:52 16,2 C 21,1 C 17,2 C 84 % 1020,0 hPa 0,0 l/m 2 min 0 min 211 W/m 6,4 km/h (2 Bft) 100,00 %
29.07.2020 08:54 16,4 C 22,2 C 20,0 C 83 % 1020,0 hPa 0,0 l/m 2 min 0 min 249 W/m 6,4 km/h (2 Bft) 100,00 %
29.07.2020 08:56 16,6 C 21,7 C 22,2 C 83 % 1020,0 hPa 0,0 l/m 2 min 0 min 286 W/m 6,4 km/h (2 Bft) 100,00 %
29.07.2020 08:58 16,7 C 21,7 C 23,3 C 82 % 1020,0 hPa 0,0 l/m 2 min 0 min 323 W/m 6,4 km/h (2 Bft) 97,83 %
29.07.2020 09:00 16,9 C 22,2 C 24,4 C 81 % 1020,1 hPa 0,0 l/m 2 min 0 min 354 W/m 6,4 km/h (2 Bft) 97,87 %
29.07.2020 09:02 17,1 C 21,7 C 24,4 C 80 % 1020,1 hPa 0,0 l/m 2 min 0 min 372 W/m 9,7 km/h (2 Bft) 100,00 %
29.07.2020 09:04 17,2 C 22,2 C 25,0 C 79 % 1020,1 hPa 0,0 l/m 2 min 0 min 397 W/m 6,4 km/h (2 Bft) 97,87 %
29.07.2020 09:06 17,4 C 22,8 C 26,1 C 79 % 1020,1 hPa 0,0 l/m 2 min 0 min 417 W/m 6,4 km/h (2 Bft) 97,87 %
29.07.2020 09:08 17,6 C 23,3 C 26,7 C 79 % 1020,1 hPa 0,0 l/m 2 min 0 min 429 W/m 6,4 km/h (2 Bft) 97,87 %
29.07.2020 09:10 17,7 C 23,3 C 27,2 C 78 % 1020,1 hPa 0,0 l/m 2 min 0 min 435 W/m 6,4 km/h (2 Bft) 100,00 %
29.07.2020 09:12 17,9 C 23,3 C 27,8 C 78 % 1020,2 hPa 0,0 l/m 2 min 0 min 434 W/m 6,4 km/h (2 Bft) 97,87 %
29.07.2020 09:14 18,1 C 23,3 C 28,3 C 77 % 1020,2 hPa 0,0 l/m 2 min 0 min 458 W/m 9,7 km/h (2 Bft) 100,00 %
29.07.2020 09:16 18,2 C 23,9 C 28,3 C 76 % 1020,1 hPa 0,0 l/m 2 min 0 min 464 W/m 6,4 km/h (2 Bft) 97,87 %
29.07.2020 09:18 18,4 C 22,8 C 27,8 C 75 % 1020,2 hPa 0,0 l/m 2 min 0 min 465 W/m 16,1 km/h (3 Bft) 97,87 %
29.07.2020 09:20 18,5 C 23,9 C 28,9 C 75 % 1020,1 hPa 0,0 l/m 2 min 0 min 468 W/m 9,7 km/h (2 Bft) 97,83 %
29.07.2020 09:22 18,6 C 23,3 C 27,8 C 74 % 1020,1 hPa 0,0 l/m 2 min 0 min 476 W/m 12,9 km/h (3 Bft) 97,87 %
29.07.2020 09:24 18,7 C 23,3 C 27,8 C 73 % 1020,3 hPa 0,0 l/m 2 min 0 min 481 W/m 6,4 km/h (2 Bft) 97,87 %
29.07.2020 09:26 18,8 C 22,8 C 27,2 C 72 % 1020,3 hPa 0,0 l/m 2 min 0 min 496 W/m 12,9 km/h (3 Bft) 97,87 %
29.07.2020 09:28 18,9 C 23,3 C 27,2 C 72 % 1020,3 hPa 0,0 l/m 2 min 0 min 497 W/m 6,4 km/h (2 Bft) 97,87 %
29.07.2020 09:30 19,0 C 23,3 C 28,3 C 71 % 1020,3 hPa 0,0 l/m 2 min 0 min 501 W/m 6,4 km/h (2 Bft) 97,87 %
29.07.2020 09:32 19,1 C 23,9 C 28,3 C 71 % 1020,3 hPa 0,0 l/m 2 min 0 min 514 W/m 6,4 km/h (2 Bft) 97,83 %
29.07.2020 09:34 19,2 C 23,3 C 27,8 C 70 % 1020,4 hPa 0,0 l/m 2 min 0 min 515 W/m 9,7 km/h (2 Bft) 97,87 %
29.07.2020 09:36 19,2 C 22,8 C 27,8 C 70 % 1020,4 hPa 0,0 l/m 2 min 0 min 519 W/m 6,4 km/h (2 Bft) 97,87 %
29.07.2020 09:38 19,3 C 23,9 C 27,8 C 70 % 1020,4 hPa 0,0 l/m 2 min 0 min 524 W/m 12,9 km/h (3 Bft) 97,87 %
29.07.2020 09:40 19,3 C 23,3 C 27,2 C 69 % 1020,4 hPa 0,0 l/m 2 min 0 min 539 W/m 16,1 km/h (3 Bft) 95,74 %
29.07.2020 09:42 19,4 C 22,8 C 26,7 C 69 % 1020,4 hPa 0,0 l/m 2 min 0 min 542 W/m 12,9 km/h (3 Bft) 97,87 %
29.07.2020 09:44 19,6 C 23,9 C 27,2 C 69 % 1020,4 hPa 0,0 l/m 2 min 0 min 552 W/m 9,7 km/h (2 Bft) 93,48 %
29.07.2020 09:46 19,6 C 23,9 C 27,2 C 69 % 1020,3 hPa 0,0 l/m 2 min 0 min 553 W/m 12,9 km/h (3 Bft) 95,74 %
29.07.2020 09:48 19,7 C 24,4 C 28,3 C 70 % 1020,3 hPa 0,0 l/m 2 min 0 min 558 W/m 6,4 km/h (2 Bft) 93,62 %
29.07.2020 09:50 19,8 C 25,0 C 28,9 C 70 % 1020,4 hPa 0,0 l/m 2 min 0 min 563 W/m 6,4 km/h (2 Bft) 93,62 %
29.07.2020 09:52 19,9 C 23,9 C 27,2 C 68 % 1020,3 hPa 0,0 l/m 2 min 0 min 568 W/m 12,9 km/h (3 Bft) 93,62 %
29.07.2020 09:54 19,9 C 23,9 C 27,8 C 68 % 1020,4 hPa 0,0 l/m 2 min 0 min 574 W/m 16,1 km/h (3 Bft) 93,62 %
29.07.2020 09:56 20,1 C 23,9 C 27,2 C 68 % 1020,4 hPa 0,0 l/m 2 min 0 min 582 W/m 12,9 km/h (3 Bft) 95,65 %
29.07.2020 09:58 20,1 C 24,4 C 27,2 C 69 % 1020,4 hPa 0,0 l/m 2 min 0 min 595 W/m 6,4 km/h (2 Bft) 95,74 %
29.07.2020 10:00 20,2 C 23,9 C 27,2 C 68 % 1020,4 hPa 0,0 l/m 2 min 0 min 600 W/m 6,4 km/h (2 Bft) 95,74 %
29.07.2020 10:02 20,2 C 23,9 C 27,2 C 68 % 1020,4 hPa 0,0 l/m 2 min 0 min 598 W/m 3,2 km/h (1 Bft) 93,62 %
29.07.2020 10:04 20,3 C 23,9 C 27,2 C 68 % 1020,4 hPa 0,0 l/m 2 min 0 min 604 W/m 16,1 km/h (3 Bft) 93,62 %
29.07.2020 10:06 20,4 C 23,9 C 27,8 C 66 % 1020,4 hPa 0,0 l/m 2 min 0 min 612 W/m 19,3 km/h (3 Bft) 95,74 %
29.07.2020 10:08 20,4 C 24,4 C 28,3 C 67 % 1020,4 hPa 0,0 l/m 2 min 0 min 629 W/m 12,9 km/h (3 Bft) 95,65 %
29.07.2020 10:10 20,5 C 24,4 C 27,8 C 65 % 1020,4 hPa 0,0 l/m 2 min 0 min 649 W/m 16,1 km/h (3 Bft) 97,87 %
29.07.2020 10:12 20,6 C 25,0 C 28,3 C 65 % 1020,4 hPa 0,0 l/m 2 min 0 min 658 W/m 12,9 km/h (3 Bft) 97,87 %
29.07.2020 10:14 20,7 C 25,0 C 28,3 C 64 % 1020,4 hPa 0,0 l/m 2 min 0 min 659 W/m 12,9 km/h (3 Bft) 97,87 %
29.07.2020 10:16 20,8 C 25,6 C 28,9 C 65 % 1020,4 hPa 0,0 l/m 2 min 0 min 696 W/m 6,4 km/h (2 Bft) 97,87 %
29.07.2020 10:18 20,9 C 26,1 C 30,0 C 64 % 1020,5 hPa 0,0 l/m 2 min 0 min 722 W/m 6,4 km/h (2 Bft) 93,48 %
29.07.2020 10:20 21,0 C 26,1 C 29,4 C 62 % 1020,4 hPa 0,0 l/m 2 min 0 min 720 W/m 6,4 km/h (2 Bft) 95,74 %
29.07.2020 10:22 21,1 C 26,1 C 29,4 C 63 % 1020,5 hPa 0,0 l/m 2 min 0 min 711 W/m 6,4 km/h (2 Bft) 95,74 %
29.07.2020 10:24 21,2 C 25,6 C 28,9 C 64 % 1020,6 hPa 0,0 l/m 2 min 0 min 690 W/m 12,9 km/h (3 Bft) 97,87 %
29.07.2020 10:26 21,3 C 25,0 C 28,9 C 64 % 1020,5 hPa 0,0 l/m 2 min 0 min 702 W/m 12,9 km/h (3 Bft) 100,00 %
29.07.2020 10:28 21,4 C 25,0 C 28,3 C 63 % 1020,5 hPa 0,0 l/m 2 min 0 min 706 W/m 12,9 km/h (3 Bft) 95,74 %
29.07.2020 10:30 21,4 C 23,3 C 26,1 C 62 % 1020,6 hPa 0,0 l/m 2 min 0 min 647 W/m 16,1 km/h (3 Bft) 97,83 %
29.07.2020 10:32 21,3 C 22,2 C 24,4 C 62 % 1020,5 hPa 0,0 l/m 2 min 0 min 647 W/m 16,1 km/h (3 Bft) 100,00 %
29.07.2020 10:34 21,3 C 23,3 C 25,0 C 63 % 1020,6 hPa 0,0 l/m 2 min 0 min 548 W/m 29,0 km/h (5 Bft) 100,00 %
29.07.2020 10:36 21,3 C 23,3 C 25,0 C 63 % 1020,6 hPa 0,0 l/m 2 min 0 min 827 W/m 12,9 km/h (3 Bft) 97,87 %
29.07.2020 10:38 21,3 C 22,2 C 23,9 C 61 % 1020,6 hPa 0,0 l/m 2 min 0 min 821 W/m 12,9 km/h (3 Bft) 97,87 %
29.07.2020 10:40 21,3 C 21,7 C 23,3 C 62 % 1020,6 hPa 0,0 l/m 2 min 0 min 821 W/m 9,7 km/h (2 Bft) 100,00 %
29.07.2020 10:42 21,2 C 22,2 C 22,8 C 62 % 1020,6 hPa 0,0 l/m 2 min 0 min 764 W/m 12,9 km/h (3 Bft) 100,00 %
29.07.2020 10:44 21,2 C 24,4 C 25,0 C 63 % 1020,5 hPa 0,0 l/m 2 min 0 min 708 W/m 12,9 km/h (3 Bft) 100,00 %
29.07.2020 10:46 21,2 C 24,4 C 25,6 C 63 % 1020,7 hPa 0,0 l/m 2 min 0 min 857 W/m 12,9 km/h (3 Bft) 100,00 %
29.07.2020 10:48 21,2 C 23,9 C 25,6 C 62 % 1020,6 hPa 0,0 l/m 2 min 0 min 880 W/m 12,9 km/h (3 Bft) 100,00 %
29.07.2020 10:50 21,2 C 22,2 C 23,9 C 62 % 1020,6 hPa 0,0 l/m 2 min 0 min 590 W/m 6,4 km/h (2 Bft) 100,00 %
29.07.2020 10:52 21,1 C 20,6 C 22,2 C 61 % 1020,6 hPa 0,0 l/m 0 min 0 min 227 W/m 19,3 km/h (3 Bft) 100,00 %
29.07.2020 10:54 21,0 C 20,6 C 21,7 C 61 % 1020,6 hPa 0,0 l/m 0 min 0 min 246 W/m 19,3 km/h (3 Bft) 100,00 %
29.07.2020 10:56 20,8 C 20,0 C 20,6 C 62 % 1020,6 hPa 0,0 l/m 0 min 0 min 164 W/m 6,4 km/h (2 Bft) 100,00 %
29.07.2020 10:58 20,7 C 19,4 C 19,4 C 62 % 1020,6 hPa 0,0 l/m 0 min 0 min 190 W/m 9,7 km/h (2 Bft) 95,74 %
29.07.2020 11:00 20,6 C 21,1 C 20,0 C 63 % 1020,6 hPa 0,0 l/m 0 min 0 min 316 W/m 6,4 km/h (2 Bft) 100,00 %
29.07.2020 11:02 20,4 C 21,7 C 20,6 C 64 % 1020,6 hPa 0,0 l/m 2 min 0 min 360 W/m 16,1 km/h (3 Bft) 100,00 %
29.07.2020 11:04 20,3 C 21,1 C 20,6 C 63 % 1020,6 hPa 0,0 l/m 0 min 0 min 299 W/m 12,9 km/h (3 Bft) 100,00 %
29.07.2020 11:06 20,2 C 20,6 C 20,0 C 63 % 1020,6 hPa 0,0 l/m 0 min 0 min 255 W/m 16,1 km/h (3 Bft) 97,83 %
29.07.2020 11:08 20,1 C 20,6 C 20,0 C 62 % 1020,6 hPa 0,0 l/m 0 min 0 min 267 W/m 12,9 km/h (3 Bft) 97,87 %
29.07.2020 11:10 20,0 C 20,0 C 19,4 C 62 % 1020,6 hPa 0,0 l/m 0 min 0 min 255 W/m 19,3 km/h (3 Bft) 97,87 %
29.07.2020 11:12 19,9 C 20,6 C 20,0 C 63 % 1020,6 hPa 0,0 l/m 0 min 0 min 288 W/m 9,7 km/h (2 Bft) 100,00 %
29.07.2020 11:14 19,8 C 20,0 C 19,4 C 61 % 1020,6 hPa 0,0 l/m 0 min 0 min 235 W/m 16,1 km/h (3 Bft) 100,00 %
29.07.2020 11:16 19,7 C 19,4 C 19,4 C 61 % 1020,6 hPa 0,0 l/m 0 min 0 min 203 W/m 16,1 km/h (3 Bft) 100,00 %
29.07.2020 11:18 19,6 C 22,2 C 20,0 C 63 % 1020,5 hPa 0,0 l/m 2 min 0 min 481 W/m 12,9 km/h (3 Bft) 95,65 %
29.07.2020 11:20 19,7 C 23,3 C 20,6 C 64 % 1020,5 hPa 0,0 l/m 2 min 0 min 975 W/m 9,7 km/h (2 Bft) 100,00 %
29.07.2020 11:22 19,8 C 23,9 C 21,1 C 64 % 1020,6 hPa 0,0 l/m 2 min 0 min 849 W/m 9,7 km/h (2 Bft) 97,87 %
29.07.2020 11:24 19,9 C 22,2 C 21,1 C 62 % 1020,7 hPa 0,0 l/m 2 min 0 min 374 W/m 16,1 km/h (3 Bft) 100,00 %
29.07.2020 11:26 19,8 C 21,1 C 20,6 C 61 % 1020,6 hPa 0,0 l/m 0 min 0 min 283 W/m 12,9 km/h (3 Bft) 100,00 %
29.07.2020 11:28 19,8 C 20,6 C 20,0 C 61 % 1020,7 hPa 0,0 l/m 0 min 0 min 272 W/m 12,9 km/h (3 Bft) 100,00 %
29.07.2020 11:30 19,8 C 21,1 C 20,0 C 61 % 1020,6 hPa 0,0 l/m 0 min 0 min 260 W/m 12,9 km/h (3 Bft) 97,87 %
29.07.2020 11:32 19,8 C 23,9 C 21,1 C 63 % 1020,5 hPa 0,0 l/m 2 min 0 min 594 W/m 9,7 km/h (2 Bft) 97,56 %
29.07.2020 11:34 20,0 C 24,4 C 21,1 C 63 % 1020,6 hPa 0,0 l/m 2 min 0 min 617 W/m 12,9 km/h (3 Bft) 100,00 %
29.07.2020 11:36 20,2 C 24,4 C 21,1 C 62 % 1020,6 hPa 0,0 l/m 2 min 0 min 617 W/m 9,7 km/h (2 Bft) 100,00 %
29.07.2020 11:38 20,3 C 26,1 C 22,2 C 63 % 1020,6 hPa 0,0 l/m 2 min 0 min 617 W/m 9,7 km/h (2 Bft) 97,87 %
29.07.2020 11:40 20,6 C 23,9 C 22,2 C 62 % 1020,5 hPa 0,0 l/m 2 min 0 min 534 W/m 12,9 km/h (3 Bft) 97,14 %
29.07.2020 11:42 20,6 C 22,8 C 21,1 C 61 % 1020,6 hPa 0,0 l/m 0 min 0 min 290 W/m 6,4 km/h (2 Bft) 100,00 %
29.07.2020 11:44 20,6 C 22,2 C 21,1 C 61 % 1020,6 hPa 0,0 l/m 0 min 0 min 298 W/m 16,1 km/h (3 Bft) 97,83 %
29.07.2020 11:46 20,7 C 21,7 C 21,1 C 61 % 1020,6 hPa 0,0 l/m 0 min 0 min 264 W/m 16,1 km/h (3 Bft) 98,31 %
29.07.2020 11:48 20,6 C 21,1 C 20,6 C 60 % 1020,5 hPa 0,0 l/m 0 min 0 min 219 W/m 16,1 km/h (3 Bft) 100,00 %
29.07.2020 11:50 20,6 C 21,1 C 20,6 C 61 % 1020,5 hPa 0,0 l/m 0 min 0 min 253 W/m 22,5 km/h (4 Bft) 97,87 %
29.07.2020 11:52 20,6 C 22,2 C 20,6 C 60 % 1020,5 hPa 0,0 l/m 0 min 0 min 288 W/m 9,7 km/h (2 Bft) 100,00 %
29.07.2020 11:54 20,6 C 23,3 C 21,1 C 62 % 1020,6 hPa 0,0 l/m 0 min 0 min 288 W/m 12,9 km/h (3 Bft) 100,00 %
29.07.2020 11:56 20,7 C 22,8 C 21,1 C 63 % 1020,6 hPa 0,0 l/m 0 min 0 min 318 W/m 6,4 km/h (2 Bft) 96,61 %
29.07.2020 11:58 20,7 C 22,2 C 21,1 C 62 % 1020,7 hPa 0,0 l/m 0 min 0 min 311 W/m 9,7 km/h (2 Bft) 100,00 %
29.07.2020 12:00 20,7 C 22,2 C 21,1 C 62 % 1020,7 hPa 0,0 l/m 0 min 0 min 270 W/m 6,4 km/h (2 Bft) 96,61 %
29.07.2020 12:02 20,7 C 22,8 C 21,1 C 61 % 1020,7 hPa 0,0 l/m 0 min 0 min 274 W/m 6,4 km/h (2 Bft) 100,00 %
29.07.2020 12:04 20,7 C 22,2 C 21,1 C 61 % 1020,6 hPa 0,0 l/m 0 min 0 min 292 W/m 16,1 km/h (3 Bft) 97,87 %
29.07.2020 12:08 20,6 C 23,9 C 21,1 C 61 % 1020,7 hPa 0,0 l/m 0 min 0 min 380 W/m 12,9 km/h (3 Bft) 98,92 %
29.07.2020 12:10 20,7 C 25,0 C 21,7 C 61 % 1020,7 hPa 0,0 l/m 2 min 0 min 792 W/m 16,1 km/h (3 Bft) 95,74 %
29.07.2020 12:12 20,8 C 23,9 C 21,7 C 62 % 1020,7 hPa 0,0 l/m 2 min 0 min 783 W/m 6,4 km/h (2 Bft) 97,87 %
29.07.2020 12:14 20,8 C 23,3 C 21,7 C 61 % 1020,7 hPa 0,0 l/m 0 min 0 min 334 W/m 6,4 km/h (2 Bft) 97,87 %
29.07.2020 12:16 20,9 C 25,0 C 22,2 C 62 % 1020,7 hPa 0,0 l/m 0 min 0 min 385 W/m 12,9 km/h (3 Bft) 95,74 %
29.07.2020 12:18 21,1 C 26,1 C 22,8 C 61 % 1020,7 hPa 0,0 l/m 0 min 0 min 385 W/m 9,7 km/h (2 Bft) 95,65 %
29.07.2020 12:20 21,2 C 25,6 C 22,2 C 61 % 1020,8 hPa 0,0 l/m 0 min 0 min 375 W/m 19,3 km/h (3 Bft) 93,62 %
29.07.2020 12:22 21,3 C 23,3 C 21,7 C 60 % 1020,7 hPa 0,0 l/m 0 min 0 min 274 W/m 16,1 km/h (3 Bft) 93,62 %
29.07.2020 12:24 21,3 C 22,8 C 21,1 C 59 % 1020,8 hPa 0,0 l/m 0 min 0 min 240 W/m 16,1 km/h (3 Bft) 93,62 %
29.07.2020 12:26 21,3 C 22,2 C 21,1 C 59 % 1020,8 hPa 0,0 l/m 0 min 0 min 253 W/m 6,4 km/h (2 Bft) 85,11 %
29.07.2020 12:28 21,3 C 21,1 C 21,1 C 58 % 1020,7 hPa 0,0 l/m 0 min 0 min 296 W/m 16,1 km/h (3 Bft) 93,62 %
29.07.2020 12:30 21,2 C 22,2 C 21,1 C 60 % 1020,7 hPa 0,0 l/m 0 min 0 min 358 W/m 12,9 km/h (3 Bft) 93,48 %
29.07.2020 12:32 21,2 C 22,2 C 21,1 C 61 % 1020,7 hPa 0,0 l/m 0 min 0 min 338 W/m 6,4 km/h (2 Bft) 91,49 %
29.07.2020 12:34 21,3 C 21,7 C 21,7 C 59 % 1020,7 hPa 0,0 l/m 0 min 0 min 288 W/m 16,1 km/h (3 Bft) 93,75 %
29.07.2020 12:36 21,2 C 21,7 C 21,7 C 58 % 1020,6 hPa 0,0 l/m 0 min 0 min 281 W/m 9,7 km/h (2 Bft) 93,62 %
29.07.2020 12:38 21,2 C 21,1 C 21,1 C 58 % 1020,7 hPa 0,0 l/m 0 min 0 min 294 W/m 12,9 km/h (3 Bft) 93,75 %
29.07.2020 12:40 21,2 C 21,7 C 21,7 C 59 % 1020,8 hPa 0,0 l/m 0 min 0 min 340 W/m 9,7 km/h (2 Bft) 93,48 %
29.07.2020 12:42 21,1 C 22,2 C 21,7 C 59 % 1020,8 hPa 0,0 l/m 0 min 0 min 352 W/m 12,9 km/h (3 Bft) 93,62 %
29.07.2020 12:44 21,2 C 22,2 C 21,7 C 60 % 1020,8 hPa 0,0 l/m 0 min 0 min 321 W/m 12,9 km/h (3 Bft) 93,62 %
29.07.2020 12:46 21,1 C 21,7 C 21,7 C 60 % 1020,8 hPa 0,0 l/m 0 min 0 min 270 W/m 6,4 km/h (2 Bft) 93,62 %
29.07.2020 12:48 21,2 C 21,7 C 21,1 C 60 % 1020,8 hPa 0,0 l/m 0 min 0 min 242 W/m 9,7 km/h (2 Bft) 93,62 %
29.07.2020 12:50 21,1 C 21,7 C 21,1 C 60 % 1020,8 hPa 0,0 l/m 0 min 0 min 255 W/m 6,4 km/h (2 Bft) 93,62 %
29.07.2020 12:52 21,1 C 21,7 C 21,1 C 60 % 1020,8 hPa 0,0 l/m 0 min 0 min 274 W/m 12,9 km/h (3 Bft) 91,30 %
29.07.2020 12:54 21,1 C 21,7 C 21,1 C 60 % 1020,8 hPa 0,0 l/m 0 min 0 min 341 W/m 9,7 km/h (2 Bft) 93,62 %
29.07.2020 12:56 21,1 C 24,4 C 21,7 C 60 % 1020,8 hPa 0,0 l/m 0 min 0 min 390 W/m 9,7 km/h (2 Bft) 93,62 %
29.07.2020 12:58 21,2 C 25,0 C 21,7 C 59 % 1020,8 hPa 0,0 l/m 0 min 0 min 390 W/m 12,9 km/h (3 Bft) 95,74 %
29.07.2020 13:00 21,3 C 23,3 C 21,7 C 60 % 1020,8 hPa 0,0 l/m 0 min 0 min 296 W/m 12,9 km/h (3 Bft) 93,62 %
29.07.2020 13:02 21,3 C 23,3 C 21,7 C 60 % 1020,8 hPa 0,0 l/m 0 min 0 min 309 W/m 12,9 km/h (3 Bft) 93,75 %
29.07.2020 13:04 21,3 C 23,9 C 21,7 C 60 % 1020,9 hPa 0,0 l/m 0 min 0 min 322 W/m 9,7 km/h (2 Bft) 95,65 %
29.07.2020 13:06 21,4 C 26,7 C 22,2 C 60 % 1020,9 hPa 0,0 l/m 2 min 0 min 1101 W/m 9,7 km/h (2 Bft) 95,74 %
29.07.2020 13:08 21,7 C 27,8 C 22,8 C 59 % 1020,9 hPa 0,0 l/m 2 min 0 min 832 W/m 19,3 km/h (3 Bft) 95,74 %
29.07.2020 13:10 21,9 C 30,0 C 23,3 C 60 % 1020,9 hPa 0,0 l/m 2 min 0 min 833 W/m 12,9 km/h (3 Bft) 93,62 %
29.07.2020 13:12 22,3 C 30,6 C 23,3 C 59 % 1020,8 hPa 0,0 l/m 2 min 0 min 833 W/m 12,9 km/h (3 Bft) 95,74 %
29.07.2020 13:14 22,6 C 28,3 C 23,3 C 58 % 1020,9 hPa 0,0 l/m 2 min 0 min 980 W/m 9,7 km/h (2 Bft) 100,00 %
29.07.2020 13:16 22,7 C 27,8 C 22,8 C 57 % 1020,9 hPa 0,0 l/m 0 min 0 min 332 W/m 12,9 km/h (3 Bft) 100,00 %
29.07.2020 13:18 22,8 C 25,6 C 22,8 C 57 % 1020,9 hPa 0,0 l/m 0 min 0 min 351 W/m 16,1 km/h (3 Bft) 100,00 %
29.07.2020 13:20 22,8 C 24,4 C 22,8 C 56 % 1020,9 hPa 0,0 l/m 0 min 0 min 354 W/m 16,1 km/h (3 Bft) 100,00 %
29.07.2020 13:22 22,8 C 24,4 C 22,8 C 56 % 1021,0 hPa 0,0 l/m 0 min 0 min 373 W/m 12,9 km/h (3 Bft) 97,87 %
29.07.2020 13:24 22,7 C 23,9 C 22,8 C 56 % 1020,9 hPa 0,0 l/m 0 min 0 min 335 W/m 6,4 km/h (2 Bft) 100,00 %
29.07.2020 13:26 22,7 C 23,9 C 22,2 C 56 % 1020,9 hPa 0,0 l/m 0 min 0 min 302 W/m 9,7 km/h (2 Bft) 100,00 %
29.07.2020 13:28 22,7 C 23,3 C 22,2 C 57 % 1021,0 hPa 0,0 l/m 0 min 0 min 309 W/m 9,7 km/h (2 Bft) 97,83 %
29.07.2020 13:30 22,6 C 23,3 C 22,2 C 56 % 1020,9 hPa 0,0 l/m 0 min 0 min 291 W/m 16,1 km/h (3 Bft) 100,00 %
29.07.2020 13:32 22,6 C 23,9 C 21,7 C 55 % 1020,8 hPa 0,0 l/m 0 min 0 min 308 W/m 16,1 km/h (3 Bft) 97,96 %
29.07.2020 13:34 22,6 C 23,9 C 22,2 C 56 % 1020,9 hPa 0,0 l/m 0 min 0 min 327 W/m 9,7 km/h (2 Bft) 100,00 %
29.07.2020 13:36 22,5 C 23,9 C 22,2 C 57 % 1020,8 hPa 0,0 l/m 0 min 0 min 309 W/m 6,4 km/h (2 Bft) 100,00 %
29.07.2020 13:38 22,4 C 23,3 C 22,2 C 57 % 1020,8 hPa 0,0 l/m 0 min 0 min 288 W/m 9,7 km/h (2 Bft) 100,00 %
29.07.2020 13:40 22,4 C 22,8 C 21,7 C 57 % 1020,8 hPa 0,0 l/m 0 min 0 min 271 W/m 9,7 km/h (2 Bft) 97,87 %
29.07.2020 13:42 22,3 C 22,8 C 21,7 C 57 % 1020,8 hPa 0,0 l/m 0 min 0 min 258 W/m 9,7 km/h (2 Bft) 100,00 %
29.07.2020 13:44 22,3 C 22,8 C 21,7 C 57 % 1020,8 hPa 0,0 l/m 0 min 0 min 256 W/m 16,1 km/h (3 Bft) 100,00 %
29.07.2020 13:46 22,3 C 23,9 C 21,7 C 58 % 1020,8 hPa 0,0 l/m 0 min 0 min 267 W/m 6,4 km/h (2 Bft) 100,00 %
29.07.2020 13:48 22,3 C 25,0 C 22,2 C 56 % 1020,8 hPa 0,0 l/m 0 min 0 min 267 W/m 16,1 km/h (3 Bft) 100,00 %
29.07.2020 13:50 22,3 C 23,9 C 22,2 C 57 % 1020,9 hPa 0,0 l/m 0 min 0 min 259 W/m 12,9 km/h (3 Bft) 100,00 %
29.07.2020 13:52 22,2 C 22,8 C 22,2 C 56 % 1020,7 hPa 0,0 l/m 0 min 0 min 266 W/m 12,9 km/h (3 Bft) 100,00 %
29.07.2020 13:54 22,2 C 22,8 C 22,2 C 57 % 1020,7 hPa 0,0 l/m 0 min 0 min 236 W/m 12,9 km/h (3 Bft) 100,00 %
29.07.2020 13:56 22,2 C 23,9 C 22,2 C 58 % 1020,7 hPa 0,0 l/m 0 min 0 min 222 W/m 9,7 km/h (2 Bft) 100,00 %
29.07.2020 13:58 22,2 C 26,7 C 23,9 C 59 % 1020,6 hPa 0,0 l/m 2 min 0 min 951 W/m 6,4 km/h (2 Bft) 97,87 %
29.07.2020 14:00 22,3 C 26,7 C 25,0 C 56 % 1020,6 hPa 0,0 l/m 2 min 0 min 1064 W/m 9,7 km/h (2 Bft) 97,87 %
29.07.2020 14:02 22,4 C 25,6 C 24,4 C 58 % 1020,7 hPa 0,0 l/m 2 min 0 min 451 W/m 12,9 km/h (3 Bft) 100,00 %
29.07.2020 14:04 22,4 C 25,0 C 25,0 C 57 % 1020,7 hPa 0,0 l/m 0 min 0 min 334 W/m 12,9 km/h (3 Bft) 100,00 %
29.07.2020 14:06 22,5 C 26,1 C 25,6 C 58 % 1020,6 hPa 0,0 l/m 0 min 0 min 364 W/m 6,4 km/h (2 Bft) 100,00 %
29.07.2020 14:08 22,6 C 25,0 C 25,0 C 57 % 1020,6 hPa 0,0 l/m 0 min 0 min 331 W/m 12,9 km/h (3 Bft) 97,87 %
29.07.2020 14:10 22,6 C 24,4 C 24,4 C 57 % 1020,6 hPa 0,0 l/m 0 min 0 min 273 W/m 9,7 km/h (2 Bft) 100,00 %
29.07.2020 14:12 22,7 C 26,7 C 26,7 C 57 % 1020,6 hPa 0,0 l/m 2 min 0 min 444 W/m 12,9 km/h (3 Bft) 100,00 %
29.07.2020 14:14 22,8 C 27,8 C 27,2 C 58 % 1020,6 hPa 0,0 l/m 2 min 0 min 1021 W/m 19,3 km/h (3 Bft) 100,00 %
29.07.2020 14:16 22,9 C 28,9 C 27,2 C 56 % 1020,6 hPa 0,0 l/m 2 min 0 min 992 W/m 19,3 km/h (3 Bft) 100,00 %
29.07.2020 14:18 23,0 C 28,3 C 26,1 C 55 % 1020,6 hPa 0,0 l/m 2 min 0 min 996 W/m 16,1 km/h (3 Bft) 100,00 %
29.07.2020 14:20 23,1 C 28,9 C 25,6 C 56 % 1020,6 hPa 0,0 l/m 2 min 0 min 1016 W/m 6,4 km/h (2 Bft) 100,00 %
29.07.2020 14:22 23,3 C 30,0 C 25,6 C 56 % 1020,6 hPa 0,0 l/m 2 min 0 min 1000 W/m 12,9 km/h (3 Bft) 100,00 %
29.07.2020 14:24 23,4 C 29,4 C 26,1 C 54 % 1020,5 hPa 0,0 l/m 2 min 0 min 996 W/m 12,9 km/h (3 Bft) 100,00 %
29.07.2020 14:26 23,6 C 30,0 C 25,6 C 55 % 1020,5 hPa 0,0 l/m 2 min 0 min 1018 W/m 12,9 km/h (3 Bft) 100,00 %
29.07.2020 14:28 23,8 C 30,0 C 25,6 C 54 % 1020,5 hPa 0,0 l/m 2 min 0 min 1011 W/m 16,1 km/h (3 Bft) 100,00 %
29.07.2020 14:30 23,9 C 30,0 C 25,0 C 54 % 1020,5 hPa 0,0 l/m 2 min 0 min 1051 W/m 9,7 km/h (2 Bft) 100,00 %
29.07.2020 14:32 24,1 C 29,4 C 25,0 C 52 % 1020,6 hPa 0,0 l/m 2 min 0 min 1004 W/m 6,4 km/h (2 Bft) 100,00 %
29.07.2020 14:34 24,1 C 30,0 C 24,4 C 53 % 1020,5 hPa 0,0 l/m 2 min 0 min 999 W/m 6,4 km/h (2 Bft) 100,00 %
29.07.2020 14:36 24,2 C 30,6 C 24,4 C 54 % 1020,4 hPa 0,0 l/m 2 min 0 min 992 W/m 6,4 km/h (2 Bft) 100,00 %
29.07.2020 14:38 24,3 C 30,6 C 24,4 C 54 % 1020,6 hPa 0,0 l/m 2 min 0 min 974 W/m 9,7 km/h (2 Bft) 97,83 %
29.07.2020 14:40 24,4 C 29,4 C 24,4 C 52 % 1020,5 hPa 0,0 l/m 2 min 0 min 994 W/m 12,9 km/h (3 Bft) 100,00 %
29.07.2020 14:42 24,6 C 30,0 C 24,4 C 53 % 1020,5 hPa 0,0 l/m 2 min 0 min 977 W/m 9,7 km/h (2 Bft) 100,00 %
29.07.2020 14:44 24,7 C 30,0 C 24,4 C 52 % 1020,5 hPa 0,0 l/m 2 min 0 min 981 W/m 12,9 km/h (3 Bft) 97,87 %
29.07.2020 14:46 24,8 C 29,4 C 24,4 C 53 % 1020,5 hPa 0,0 l/m 2 min 0 min 906 W/m 16,1 km/h (3 Bft) 97,87 %
29.07.2020 14:48 24,8 C 27,8 C 23,9 C 51 % 1020,5 hPa 0,0 l/m 2 min 0 min 904 W/m 9,7 km/h (2 Bft) 97,83 %
29.07.2020 14:50 24,8 C 27,8 C 24,4 C 52 % 1020,5 hPa 0,0 l/m 2 min 0 min 904 W/m 12,9 km/h (3 Bft) 95,74 %
29.07.2020 14:52 24,7 C 26,7 C 23,9 C 50 % 1020,4 hPa 0,0 l/m 2 min 0 min 938 W/m 19,3 km/h (3 Bft) 97,87 %
29.07.2020 14:54 24,6 C 26,1 C 23,3 C 52 % 1020,4 hPa 0,0 l/m 0 min 0 min 342 W/m 9,7 km/h (2 Bft) 97,87 %
29.07.2020 14:56 24,6 C 25,6 C 23,3 C 52 % 1020,4 hPa 0,0 l/m 0 min 0 min 340 W/m 6,4 km/h (2 Bft) 97,87 %
29.07.2020 14:58 24,6 C 27,2 C 23,3 C 53 % 1020,4 hPa 0,0 l/m 2 min 0 min 445 W/m 9,7 km/h (2 Bft) 97,87 %
29.07.2020 15:00 24,6 C 28,9 C 23,3 C 53 % 1020,3 hPa 0,0 l/m 2 min 0 min 927 W/m 6,4 km/h (2 Bft) 95,65 %
29.07.2020 15:02 24,6 C 29,4 C 23,3 C 52 % 1020,4 hPa 0,0 l/m 2 min 0 min 898 W/m 12,9 km/h (3 Bft) 97,92 %
29.07.2020 15:04 24,6 C 29,4 C 22,8 C 52 % 1020,4 hPa 0,0 l/m 2 min 0 min 902 W/m 9,7 km/h (2 Bft) 95,74 %
29.07.2020 15:06 24,7 C 27,2 C 22,8 C 51 % 1020,4 hPa 0,0 l/m 2 min 0 min 804 W/m 16,1 km/h (3 Bft) 97,87 %
29.07.2020 15:08 24,6 C 28,3 C 23,3 C 53 % 1020,4 hPa 0,0 l/m 2 min 0 min 834 W/m 9,7 km/h (2 Bft) 97,87 %
29.07.2020 15:10 24,6 C 28,9 C 23,3 C 53 % 1020,3 hPa 0,0 l/m 2 min 0 min 942 W/m 12,9 km/h (3 Bft) 93,48 %
29.07.2020 15:12 24,7 C 29,4 C 23,3 C 52 % 1020,3 hPa 0,0 l/m 2 min 0 min 908 W/m 9,7 km/h (2 Bft) 97,87 %
29.07.2020 15:14 24,7 C 29,4 C 23,3 C 51 % 1020,4 hPa 0,0 l/m 2 min 0 min 920 W/m 12,9 km/h (3 Bft) 97,87 %
29.07.2020 15:16 24,7 C 27,2 C 23,3 C 52 % 1020,4 hPa 0,0 l/m 2 min 0 min 760 W/m 9,7 km/h (2 Bft) 97,87 %
29.07.2020 15:18 24,7 C 28,3 C 23,3 C 51 % 1020,4 hPa 0,0 l/m 2 min 0 min 447 W/m 6,4 km/h (2 Bft) 95,74 %
29.07.2020 15:20 24,7 C 28,9 C 23,3 C 52 % 1020,4 hPa 0,0 l/m 2 min 0 min 875 W/m 12,9 km/h (3 Bft) 95,74 %
29.07.2020 15:22 24,7 C 28,3 C 23,3 C 52 % 1020,3 hPa 0,0 l/m 2 min 0 min 877 W/m 12,9 km/h (3 Bft) 97,83 %
29.07.2020 15:24 24,7 C 28,3 C 23,3 C 51 % 1020,4 hPa 0,0 l/m 2 min 0 min 861 W/m 19,3 km/h (3 Bft) 95,74 %
29.07.2020 15:26 24,7 C 26,7 C 23,3 C 52 % 1020,3 hPa 0,0 l/m 2 min 0 min 872 W/m 6,4 km/h (2 Bft) 95,74 %
29.07.2020 15:28 24,7 C 25,6 C 22,8 C 51 % 1020,3 hPa 0,0 l/m 2 min 0 min 872 W/m 12,9 km/h (3 Bft) 95,74 %
29.07.2020 15:30 24,6 C 25,0 C 22,8 C 52 % 1020,3 hPa 0,0 l/m 2 min 0 min 491 W/m 9,7 km/h (2 Bft) 95,74 %
29.07.2020 15:32 24,4 C 25,0 C 22,8 C 51 % 1020,4 hPa 0,0 l/m 2 min 0 min 378 W/m 9,7 km/h (2 Bft) 97,87 %
29.07.2020 15:34 24,4 C 26,1 C 22,8 C 52 % 1020,3 hPa 0,0 l/m 2 min 0 min 483 W/m 6,4 km/h (2 Bft) 95,65 %
29.07.2020 15:36 24,3 C 27,2 C 22,8 C 53 % 1020,3 hPa 0,0 l/m 2 min 0 min 782 W/m 6,4 km/h (2 Bft) 95,74 %
29.07.2020 15:38 24,3 C 26,1 C 22,8 C 52 % 1020,4 hPa 0,0 l/m 2 min 0 min 863 W/m 16,1 km/h (3 Bft) 95,74 %
29.07.2020 15:40 24,3 C 27,2 C 22,8 C 52 % 1020,3 hPa 0,0 l/m 2 min 0 min 892 W/m 6,4 km/h (2 Bft) 97,87 %
29.07.2020 15:42 24,3 C 27,2 C 22,8 C 51 % 1020,2 hPa 0,0 l/m 2 min 0 min 901 W/m 19,3 km/h (3 Bft) 95,74 %
29.07.2020 15:44 24,3 C 27,8 C 22,8 C 53 % 1020,3 hPa 0,0 l/m 2 min 0 min 945 W/m 6,4 km/h (2 Bft) 95,74 %
29.07.2020 15:46 24,3 C 25,6 C 22,8 C 52 % 1020,3 hPa 0,0 l/m 2 min 0 min 792 W/m 25,7 km/h (4 Bft) 93,48 %
29.07.2020 15:48 24,2 C 25,6 C 22,8 C 51 % 1020,2 hPa 0,0 l/m 0 min 0 min 274 W/m 12,9 km/h (3 Bft) 93,62 %
29.07.2020 15:50 24,2 C 25,6 C 22,8 C 51 % 1020,2 hPa 0,0 l/m 0 min 0 min 278 W/m 19,3 km/h (3 Bft) 91,49 %
29.07.2020 15:52 24,2 C 27,2 C 22,8 C 53 % 1020,2 hPa 0,0 l/m 0 min 0 min 313 W/m 6,4 km/h (2 Bft) 95,74 %
29.07.2020 15:54 24,2 C 26,7 C 22,8 C 54 % 1020,1 hPa 0,0 l/m 0 min 0 min 329 W/m 6,4 km/h (2 Bft) 95,74 %
29.07.2020 15:56 24,2 C 27,8 C 22,8 C 54 % 1020,1 hPa 0,0 l/m 2 min 0 min 390 W/m 6,4 km/h (2 Bft) 93,48 %
29.07.2020 15:58 24,3 C 28,9 C 22,8 C 55 % 1020,1 hPa 0,0 l/m 2 min 0 min 889 W/m 6,4 km/h (2 Bft) 95,74 %
29.07.2020 16:00 24,3 C 27,8 C 23,3 C 52 % 1020,1 hPa 0,0 l/m 2 min 0 min 884 W/m 12,9 km/h (3 Bft) 95,74 %
29.07.2020 16:02 24,4 C 29,4 C 23,3 C 54 % 1020,1 hPa 0,0 l/m 2 min 0 min 858 W/m 9,7 km/h (2 Bft) 95,74 %
29.07.2020 16:04 24,5 C 29,4 C 23,3 C 53 % 1020,1 hPa 0,0 l/m 2 min 0 min 863 W/m 12,9 km/h (3 Bft) 90,00 %
29.07.2020 16:06 24,6 C 30,0 C 23,3 C 53 % 1020,1 hPa 0,0 l/m 2 min 0 min 838 W/m 9,7 km/h (2 Bft) 95,74 %
29.07.2020 16:08 24,7 C 30,0 C 23,3 C 53 % 1020,0 hPa 0,0 l/m 2 min 0 min 834 W/m 3,2 km/h (1 Bft) 95,74 %
29.07.2020 16:10 24,8 C 30,6 C 23,3 C 56 % 1020,1 hPa 0,0 l/m 2 min 0 min 838 W/m 6,4 km/h (2 Bft) 95,74 %
29.07.2020 16:12 25,0 C 30,0 C 23,3 C 52 % 1020,1 hPa 0,0 l/m 2 min 0 min 821 W/m 12,9 km/h (3 Bft) 95,65 %
29.07.2020 16:14 25,1 C 28,9 C 23,9 C 51 % 1020,1 hPa 0,0 l/m 2 min 0 min 815 W/m 12,9 km/h (3 Bft) 95,74 %
29.07.2020 16:16 25,1 C 28,9 C 23,9 C 52 % 1020,1 hPa 0,0 l/m 2 min 0 min 817 W/m 12,9 km/h (3 Bft) 93,62 %
29.07.2020 16:18 25,1 C 29,4 C 23,9 C 52 % 1020,1 hPa 0,0 l/m 2 min 0 min 823 W/m 12,9 km/h (3 Bft) 95,74 %
29.07.2020 16:20 25,2 C 28,9 C 23,9 C 51 % 1020,0 hPa 0,0 l/m 2 min 0 min 857 W/m 9,7 km/h (2 Bft) 95,74 %
29.07.2020 16:22 25,2 C 27,8 C 23,9 C 51 % 1020,0 hPa 0,0 l/m 2 min 0 min 430 W/m 9,7 km/h (2 Bft) 93,48 %
29.07.2020 16:24 25,2 C 28,3 C 23,9 C 51 % 1020,1 hPa 0,0 l/m 2 min 0 min 510 W/m 9,7 km/h (2 Bft) 93,62 %
29.07.2020 16:26 25,2 C 28,3 C 23,9 C 50 % 1020,0 hPa 0,0 l/m 2 min 0 min 799 W/m 6,4 km/h (2 Bft) 97,87 %
29.07.2020 16:28 25,2 C 28,9 C 23,9 C 51 % 1020,0 hPa 0,0 l/m 2 min 0 min 782 W/m 12,9 km/h (3 Bft) 95,74 %
29.07.2020 16:30 25,3 C 29,4 C 23,3 C 51 % 1020,0 hPa 0,0 l/m 2 min 0 min 776 W/m 6,4 km/h (2 Bft) 97,87 %
29.07.2020 16:32 25,3 C 30,0 C 23,3 C 50 % 1019,9 hPa 0,0 l/m 2 min 0 min 761 W/m 9,7 km/h (2 Bft) 97,87 %
29.07.2020 16:34 25,4 C 29,4 C 23,3 C 51 % 1020,0 hPa 0,0 l/m 2 min 0 min 778 W/m 12,9 km/h (3 Bft) 97,83 %
29.07.2020 16:38 25,5 C 29,4 C 23,9 C 52 % 1019,9 hPa 0,0 l/m 4 min 0 min 765 W/m 9,7 km/h (2 Bft) 98,94 %
29.07.2020 16:40 25,6 C 29,4 C 24,4 C 52 % 1019,9 hPa 0,0 l/m 2 min 0 min 752 W/m 12,9 km/h (3 Bft) 100,00 %
29.07.2020 16:42 25,7 C 29,4 C 23,9 C 52 % 1019,9 hPa 0,0 l/m 2 min 0 min 732 W/m 6,4 km/h (2 Bft) 100,00 %
29.07.2020 16:44 25,7 C 29,4 C 23,9 C 51 % 1019,9 hPa 0,0 l/m 2 min 0 min 710 W/m 9,7 km/h (2 Bft) 97,87 %
29.07.2020 16:46 25,8 C 30,0 C 23,9 C 51 % 1019,9 hPa 0,0 l/m 2 min 0 min 740 W/m 6,4 km/h (2 Bft) 95,65 %
29.07.2020 16:48 25,8 C 30,0 C 23,3 C 51 % 1019,9 hPa 0,0 l/m 2 min 0 min 724 W/m 9,7 km/h (2 Bft) 100,00 %
29.07.2020 16:50 25,8 C 28,9 C 23,3 C 50 % 1020,0 hPa 0,0 l/m 2 min 0 min 711 W/m 9,7 km/h (2 Bft) 100,00 %
29.07.2020 16:52 25,8 C 27,2 C 23,3 C 50 % 1020,0 hPa 0,0 l/m 2 min 0 min 691 W/m 9,7 km/h (2 Bft) 97,87 %
29.07.2020 16:54 25,7 C 27,2 C 23,3 C 50 % 1019,9 hPa 0,0 l/m 2 min 0 min 694 W/m 12,9 km/h (3 Bft) 100,00 %
29.07.2020 16:56 25,6 C 27,8 C 23,3 C 49 % 1019,9 hPa 0,0 l/m 2 min 0 min 726 W/m 16,1 km/h (3 Bft) 100,00 %
29.07.2020 16:58 25,6 C 27,8 C 23,3 C 50 % 1019,9 hPa 0,0 l/m 2 min 0 min 710 W/m 12,9 km/h (3 Bft) 100,00 %
29.07.2020 17:00 25,5 C 27,8 C 23,3 C 50 % 1019,8 hPa 0,0 l/m 2 min 0 min 710 W/m 19,3 km/h (3 Bft) 100,00 %
29.07.2020 17:02 25,5 C 27,2 C 23,3 C 50 % 1019,9 hPa 0,0 l/m 2 min 0 min 683 W/m 16,1 km/h (3 Bft) 100,00 %
29.07.2020 17:04 25,4 C 27,8 C 23,3 C 50 % 1019,9 hPa 0,0 l/m 2 min 0 min 679 W/m 6,4 km/h (2 Bft) 100,00 %
29.07.2020 17:06 25,4 C 27,2 C 23,9 C 49 % 1019,8 hPa 0,0 l/m 2 min 0 min 673 W/m 12,9 km/h (3 Bft) 100,00 %
29.07.2020 17:08 25,4 C 28,3 C 23,9 C 51 % 1019,8 hPa 0,0 l/m 2 min 0 min 671 W/m 6,4 km/h (2 Bft) 100,00 %
29.07.2020 17:10 25,5 C 28,9 C 23,9 C 52 % 1019,8 hPa 0,0 l/m 2 min 0 min 670 W/m 12,9 km/h (3 Bft) 100,00 %
29.07.2020 17:12 25,6 C 28,3 C 23,9 C 52 % 1019,8 hPa 0,0 l/m 2 min 0 min 655 W/m 9,7 km/h (2 Bft) 93,62 %
29.07.2020 17:14 25,6 C 27,8 C 23,9 C 50 % 1019,8 hPa 0,0 l/m 2 min 0 min 647 W/m 16,1 km/h (3 Bft) 100,00 %
29.07.2020 17:16 25,6 C 28,3 C 23,9 C 52 % 1019,8 hPa 0,0 l/m 2 min 0 min 669 W/m 9,7 km/h (2 Bft) 100,00 %
29.07.2020 17:18 25,7 C 28,3 C 23,9 C 52 % 1019,8 hPa 0,0 l/m 2 min 0 min 672 W/m 6,4 km/h (2 Bft) 100,00 %
29.07.2020 17:20 25,7 C 27,8 C 23,9 C 51 % 1019,8 hPa 0,0 l/m 2 min 0 min 639 W/m 12,9 km/h (3 Bft) 100,00 %
29.07.2020 17:22 25,7 C 28,3 C 23,9 C 51 % 1019,9 hPa 0,0 l/m 2 min 0 min 611 W/m 9,7 km/h (2 Bft) 100,00 %
29.07.2020 17:24 25,7 C 28,3 C 23,9 C 51 % 1019,8 hPa 0,0 l/m 2 min 0 min 632 W/m 9,7 km/h (2 Bft) 97,87 %
29.07.2020 17:26 25,7 C 26,7 C 23,3 C 50 % 1019,9 hPa 0,0 l/m 2 min 0 min 638 W/m 16,1 km/h (3 Bft) 100,00 %
29.07.2020 17:28 25,6 C 26,7 C 23,3 C 50 % 1019,9 hPa 0,0 l/m 2 min 0 min 638 W/m 9,7 km/h (2 Bft) 97,87 %
29.07.2020 17:30 25,6 C 25,6 C 22,8 C 50 % 1019,9 hPa 0,0 l/m 2 min 0 min 638 W/m 12,9 km/h (3 Bft) 95,74 %
29.07.2020 17:32 25,4 C 25,0 C 22,8 C 50 % 1019,9 hPa 0,0 l/m 2 min 0 min 638 W/m 9,7 km/h (2 Bft) 98,08 %
29.07.2020 17:34 25,4 C 25,6 C 22,8 C 51 % 1019,9 hPa 0,0 l/m 2 min 0 min 307 W/m 9,7 km/h (2 Bft) 97,87 %
29.07.2020 17:36 25,3 C 25,0 C 22,2 C 51 % 1019,9 hPa 0,0 l/m 0 min 0 min 251 W/m 9,7 km/h (2 Bft) 95,74 %
29.07.2020 17:38 25,2 C 25,6 C 22,8 C 51 % 1019,8 hPa 0,0 l/m 2 min 0 min 306 W/m 6,4 km/h (2 Bft) 97,87 %
29.07.2020 17:40 25,2 C 26,7 C 22,8 C 51 % 1019,8 hPa 0,0 l/m 2 min 0 min 527 W/m 6,4 km/h (2 Bft) 97,87 %
29.07.2020 17:42 25,2 C 27,2 C 22,8 C 52 % 1019,8 hPa 0,0 l/m 2 min 0 min 609 W/m 9,7 km/h (2 Bft) 97,83 %
29.07.2020 17:44 25,2 C 27,8 C 23,3 C 51 % 1019,8 hPa 0,0 l/m 2 min 0 min 583 W/m 9,7 km/h (2 Bft) 97,87 %
29.07.2020 17:46 25,2 C 28,3 C 23,9 C 51 % 1019,8 hPa 0,0 l/m 2 min 0 min 562 W/m 9,7 km/h (2 Bft) 95,12 %
29.07.2020 17:48 25,2 C 27,8 C 24,4 C 52 % 1019,8 hPa 0,0 l/m 2 min 0 min 551 W/m 6,4 km/h (2 Bft) 98,11 %
29.07.2020 17:50 25,2 C 27,2 C 24,4 C 51 % 1019,9 hPa 0,0 l/m 2 min 0 min 552 W/m 19,3 km/h (3 Bft) 97,87 %
29.07.2020 17:52 25,2 C 27,2 C 24,4 C 51 % 1019,9 hPa 0,0 l/m 2 min 0 min 542 W/m 12,9 km/h (3 Bft) 97,96 %
29.07.2020 17:54 25,2 C 27,2 C 23,9 C 54 % 1019,8 hPa 0,0 l/m 2 min 0 min 535 W/m 9,7 km/h (2 Bft) 95,74 %
29.07.2020 17:56 25,3 C 27,2 C 23,9 C 52 % 1019,8 hPa 0,0 l/m 2 min 0 min 513 W/m 6,4 km/h (2 Bft) 100,00 %
29.07.2020 17:58 25,3 C 27,2 C 23,3 C 51 % 1019,9 hPa 0,0 l/m 2 min 0 min 502 W/m 12,9 km/h (3 Bft) 96,72 %
29.07.2020 18:00 25,3 C 27,2 C 23,3 C 50 % 1019,8 hPa 0,0 l/m 2 min 0 min 500 W/m 6,4 km/h (2 Bft) 97,87 %
29.07.2020 18:02 25,3 C 27,2 C 23,3 C 51 % 1019,8 hPa 0,0 l/m 2 min 0 min 509 W/m 6,4 km/h (2 Bft) 96,36 %
29.07.2020 18:04 25,3 C 27,2 C 23,3 C 50 % 1019,9 hPa 0,0 l/m 2 min 0 min 502 W/m 16,1 km/h (3 Bft) 97,87 %
29.07.2020 18:08 25,3 C 27,2 C 23,3 C 51 % 1019,9 hPa 0,0 l/m 4 min 0 min 489 W/m 9,7 km/h (2 Bft) 96,77 %
29.07.2020 18:10 25,3 C 27,2 C 23,3 C 50 % 1019,9 hPa 0,0 l/m 2 min 0 min 471 W/m 6,4 km/h (2 Bft) 95,74 %
29.07.2020 18:12 25,3 C 27,2 C 22,8 C 52 % 1019,9 hPa 0,0 l/m 2 min 0 min 455 W/m 9,7 km/h (2 Bft) 97,87 %
29.07.2020 18:14 25,3 C 27,2 C 22,8 C 52 % 1019,9 hPa 0,0 l/m 2 min 0 min 463 W/m 9,7 km/h (2 Bft) 97,87 %
29.07.2020 18:16 25,3 C 26,7 C 22,8 C 50 % 1019,9 hPa 0,0 l/m 2 min 0 min 467 W/m 9,7 km/h (2 Bft) 97,87 %
29.07.2020 18:18 25,4 C 27,2 C 22,8 C 52 % 1019,9 hPa 0,0 l/m 2 min 0 min 460 W/m 3,2 km/h (1 Bft) 100,00 %
29.07.2020 18:20 25,4 C 26,7 C 22,8 C 51 % 1019,8 hPa 0,0 l/m 2 min 0 min 444 W/m 9,7 km/h (2 Bft) 100,00 %
29.07.2020 18:22 25,4 C 26,1 C 22,2 C 50 % 1019,8 hPa 0,0 l/m 2 min 0 min 418 W/m 9,7 km/h (2 Bft) 95,74 %
29.07.2020 18:24 25,3 C 26,1 C 22,2 C 50 % 1019,8 hPa 0,0 l/m 2 min 0 min 438 W/m 6,4 km/h (2 Bft) 95,74 %
29.07.2020 18:26 25,3 C 26,1 C 22,2 C 51 % 1019,8 hPa 0,0 l/m 2 min 0 min 439 W/m 3,2 km/h (1 Bft) 95,74 %
29.07.2020 18:28 25,3 C 26,1 C 22,2 C 50 % 1019,9 hPa 0,0 l/m 2 min 0 min 428 W/m 6,4 km/h (2 Bft) 100,00 %
29.07.2020 18:30 25,3 C 26,1 C 22,2 C 50 % 1019,9 hPa 0,0 l/m 2 min 0 min 427 W/m 6,4 km/h (2 Bft) 100,00 %
29.07.2020 18:32 25,3 C 26,1 C 22,2 C 50 % 1019,9 hPa 0,0 l/m 2 min 0 min 426 W/m 9,7 km/h (2 Bft) 93,88 %
29.07.2020 18:34 25,3 C 26,1 C 22,2 C 50 % 1019,8 hPa 0,0 l/m 2 min 0 min 418 W/m 6,4 km/h (2 Bft) 95,74 %
29.07.2020 18:36 25,3 C 26,1 C 22,2 C 51 % 1019,9 hPa 0,0 l/m 2 min 0 min 409 W/m 6,4 km/h (2 Bft) 100,00 %
29.07.2020 18:38 25,3 C 26,1 C 22,2 C 52 % 1019,8 hPa 0,0 l/m 2 min 0 min 402 W/m 3,2 km/h (1 Bft) 97,30 %
29.07.2020 18:40 25,3 C 25,6 C 21,7 C 53 % 1019,8 hPa 0,0 l/m 2 min 0 min 379 W/m 3,2 km/h (1 Bft) 98,08 %
29.07.2020 18:42 25,3 C 25,6 C 21,7 C 52 % 1019,8 hPa 0,0 l/m 2 min 0 min 363 W/m 6,4 km/h (2 Bft) 95,74 %
29.07.2020 18:44 25,2 C 25,0 C 21,7 C 51 % 1019,8 hPa 0,0 l/m 2 min 0 min 370 W/m 6,4 km/h (2 Bft) 97,87 %
29.07.2020 18:46 25,2 C 25,0 C 22,2 C 50 % 1019,8 hPa 0,0 l/m 2 min 0 min 367 W/m 9,7 km/h (2 Bft) 97,87 %
29.07.2020 18:48 25,2 C 25,0 C 21,7 C 51 % 1019,8 hPa 0,0 l/m 2 min 0 min 339 W/m 6,4 km/h (2 Bft) 97,87 %
29.07.2020 18:50 25,2 C 25,0 C 21,7 C 51 % 1019,8 hPa 0,0 l/m 2 min 0 min 342 W/m 6,4 km/h (2 Bft) 97,87 %
29.07.2020 18:52 25,1 C 24,4 C 21,7 C 51 % 1019,9 hPa 0,0 l/m 2 min 0 min 340 W/m 6,4 km/h (2 Bft) 97,83 %
29.07.2020 18:54 25,1 C 24,4 C 21,7 C 51 % 1019,9 hPa 0,0 l/m 2 min 0 min 315 W/m 6,4 km/h (2 Bft) 97,87 %
29.07.2020 18:56 25,1 C 24,4 C 21,7 C 51 % 1019,8 hPa 0,0 l/m 2 min 0 min 336 W/m 16,1 km/h (3 Bft) 97,87 %
29.07.2020 18:58 24,9 C 24,4 C 21,7 C 51 % 1019,8 hPa 0,0 l/m 2 min 0 min 333 W/m 9,7 km/h (2 Bft) 97,87 %
29.07.2020 19:00 24,9 C 24,4 C 21,7 C 51 % 1019,8 hPa 0,0 l/m 2 min 0 min 319 W/m 6,4 km/h (2 Bft) 97,87 %
29.07.2020 19:02 24,8 C 24,4 C 21,7 C 52 % 1019,8 hPa 0,0 l/m 2 min 0 min 321 W/m 6,4 km/h (2 Bft) 91,67 %
29.07.2020 19:04 24,7 C 23,9 C 21,1 C 52 % 1019,9 hPa 0,0 l/m 2 min 0 min 318 W/m 9,7 km/h (2 Bft) 95,65 %
29.07.2020 19:06 24,7 C 23,9 C 21,1 C 52 % 1019,8 hPa 0,0 l/m 2 min 0 min 305 W/m 6,4 km/h (2 Bft) 95,74 %
29.07.2020 19:08 24,6 C 23,9 C 21,1 C 53 % 1019,8 hPa 0,0 l/m 2 min 0 min 294 W/m 6,4 km/h (2 Bft) 95,74 %
29.07.2020 19:10 24,6 C 23,9 C 21,1 C 53 % 1019,8 hPa 0,0 l/m 2 min 0 min 282 W/m 6,4 km/h (2 Bft) 95,74 %
29.07.2020 19:12 24,4 C 23,9 C 21,1 C 52 % 1019,8 hPa 0,0 l/m 2 min 0 min 267 W/m 9,7 km/h (2 Bft) 95,74 %
29.07.2020 19:14 24,4 C 23,9 C 21,1 C 53 % 1019,8 hPa 0,0 l/m 2 min 0 min 269 W/m 6,4 km/h (2 Bft) 93,62 %
29.07.2020 19:16 24,3 C 23,3 C 21,1 C 52 % 1019,8 hPa 0,0 l/m 2 min 0 min 264 W/m 9,7 km/h (2 Bft) 95,65 %
29.07.2020 19:18 24,3 C 22,8 C 20,6 C 52 % 1019,8 hPa 0,0 l/m 2 min 0 min 261 W/m 12,9 km/h (3 Bft) 93,62 %
29.07.2020 19:20 24,2 C 22,8 C 20,6 C 52 % 1019,7 hPa 0,0 l/m 2 min 0 min 259 W/m 12,9 km/h (3 Bft) 95,74 %
29.07.2020 19:22 24,1 C 22,2 C 20,6 C 52 % 1019,7 hPa 0,0 l/m 2 min 0 min 251 W/m 6,4 km/h (2 Bft) 93,62 %
29.07.2020 19:24 24,1 C 22,2 C 20,6 C 53 % 1019,7 hPa 0,0 l/m 2 min 0 min 234 W/m 6,4 km/h (2 Bft) 93,62 %
29.07.2020 19:26 23,9 C 22,2 C 20,6 C 52 % 1019,7 hPa 0,0 l/m 2 min 0 min 146 W/m 12,9 km/h (3 Bft) 95,74 %
29.07.2020 19:28 23,8 C 21,7 C 20,6 C 52 % 1019,7 hPa 0,0 l/m 0 min 0 min 77 W/m 6,4 km/h (2 Bft) 93,48 %
29.07.2020 19:30 23,7 C 21,7 C 20,6 C 53 % 1019,7 hPa 0,0 l/m 0 min 0 min 70 W/m 9,7 km/h (2 Bft) 95,74 %
29.07.2020 19:32 23,6 C 21,7 C 20,6 C 53 % 1019,7 hPa 0,0 l/m 0 min 0 min 67 W/m 12,9 km/h (3 Bft) 95,92 %
29.07.2020 19:34 23,5 C 21,1 C 20,6 C 54 % 1019,7 hPa 0,0 l/m 0 min 0 min 64 W/m 9,7 km/h (2 Bft) 97,87 %
29.07.2020 19:36 23,4 C 21,1 C 20,0 C 54 % 1019,8 hPa 0,0 l/m 0 min 0 min 62 W/m 6,4 km/h (2 Bft) 97,87 %
29.07.2020 19:38 23,3 C 21,1 C 20,0 C 54 % 1019,7 hPa 0,0 l/m 0 min 0 min 60 W/m 9,7 km/h (2 Bft) 97,83 %
29.07.2020 19:40 23,3 C 21,1 C 20,0 C 55 % 1019,7 hPa 0,0 l/m 0 min 0 min 60 W/m 6,4 km/h (2 Bft) 97,37 %
29.07.2020 19:42 23,2 C 21,1 C 20,0 C 55 % 1019,7 hPa 0,0 l/m 0 min 0 min 58 W/m 6,4 km/h (2 Bft) 97,87 %
29.07.2020 19:44 23,1 C 20,6 C 20,0 C 55 % 1019,7 hPa 0,0 l/m 0 min 0 min 56 W/m 6,4 km/h (2 Bft) 97,87 %
29.07.2020 19:46 22,9 C 20,6 C 20,0 C 55 % 1019,7 hPa 0,0 l/m 0 min 0 min 54 W/m 16,1 km/h (3 Bft) 97,87 %
29.07.2020 19:48 22,8 C 20,6 C 20,0 C 55 % 1019,7 hPa 0,0 l/m 0 min 0 min 54 W/m 6,4 km/h (2 Bft) 97,87 %
29.07.2020 19:50 22,8 C 20,6 C 20,0 C 55 % 1019,7 hPa 0,0 l/m 0 min 0 min 52 W/m 9,7 km/h (2 Bft) 97,87 %
29.07.2020 19:52 22,7 C 20,6 C 20,0 C 55 % 1019,7 hPa 0,0 l/m 0 min 0 min 51 W/m 12,9 km/h (3 Bft) 97,83 %
29.07.2020 19:54 22,6 C 20,6 C 20,0 C 55 % 1019,7 hPa 0,0 l/m 0 min 0 min 49 W/m 9,7 km/h (2 Bft) 100,00 %
29.07.2020 19:56 22,5 C 20,6 C 20,0 C 55 % 1019,7 hPa 0,0 l/m 0 min 0 min 46 W/m 9,7 km/h (2 Bft) 100,00 %
29.07.2020 19:58 22,4 C 20,6 C 20,0 C 56 % 1019,7 hPa 0,0 l/m 0 min 0 min 43 W/m 6,4 km/h (2 Bft) 100,00 %
29.07.2020 20:00 22,4 C 20,6 C 19,4 C 55 % 1019,7 hPa 0,0 l/m 0 min 0 min 41 W/m 9,7 km/h (2 Bft) 100,00 %
29.07.2020 20:02 22,3 C 20,6 C 19,4 C 56 % 1019,7 hPa 0,0 l/m 0 min 0 min 42 W/m 9,7 km/h (2 Bft) 95,74 %
29.07.2020 20:04 22,2 C 20,6 C 19,4 C 56 % 1019,7 hPa 0,0 l/m 0 min 0 min 39 W/m 6,4 km/h (2 Bft) 97,83 %
29.07.2020 20:06 22,1 C 20,0 C 19,4 C 56 % 1019,7 hPa 0,0 l/m 0 min 0 min 37 W/m 9,7 km/h (2 Bft) 97,87 %
29.07.2020 20:08 22,1 C 20,0 C 19,4 C 57 % 1019,7 hPa 0,0 l/m 0 min 0 min 37 W/m 6,4 km/h (2 Bft) 97,87 %
29.07.2020 20:10 22,1 C 20,0 C 19,4 C 57 % 1019,7 hPa 0,0 l/m 0 min 0 min 35 W/m 3,2 km/h (1 Bft) 97,87 %
29.07.2020 20:12 21,9 C 20,0 C 19,4 C 56 % 1019,7 hPa 0,0 l/m 0 min 0 min 35 W/m 6,4 km/h (2 Bft) 93,62 %
29.07.2020 20:14 21,9 C 20,0 C 19,4 C 57 % 1019,7 hPa 0,0 l/m 0 min 0 min 40 W/m 3,2 km/h (1 Bft) 97,87 %
29.07.2020 20:16 21,9 C 20,0 C 19,4 C 57 % 1019,7 hPa 0,0 l/m 0 min 0 min 43 W/m 9,7 km/h (2 Bft) 95,65 %
29.07.2020 20:18 21,8 C 20,0 C 19,4 C 57 % 1019,7 hPa 0,0 l/m 0 min 0 min 42 W/m 6,4 km/h (2 Bft) 97,87 %
29.07.2020 20:20 21,7 C 20,0 C 19,4 C 57 % 1019,7 hPa 0,0 l/m 0 min 0 min 42 W/m 3,2 km/h (1 Bft) 98,15 %
29.07.2020 20:22 21,7 C 20,0 C 19,4 C 57 % 1019,8 hPa 0,0 l/m 0 min 0 min 43 W/m 6,4 km/h (2 Bft) 97,92 %
29.07.2020 20:24 21,6 C 20,0 C 19,4 C 57 % 1019,8 hPa 0,0 l/m 0 min 0 min 44 W/m 6,4 km/h (2 Bft) 95,74 %
29.07.2020 20:26 21,6 C 20,0 C 18,9 C 57 % 1019,8 hPa 0,0 l/m 0 min 0 min 43 W/m 6,4 km/h (2 Bft) 97,83 %
29.07.2020 20:28 21,6 C 20,0 C 18,9 C 58 % 1019,8 hPa 0,0 l/m 0 min 0 min 42 W/m 3,2 km/h (1 Bft) 97,87 %
29.07.2020 20:30 21,5 C 19,4 C 18,9 C 59 % 1019,8 hPa 0,0 l/m 0 min 0 min 40 W/m 6,4 km/h (2 Bft) 95,74 %
29.07.2020 20:32 21,4 C 19,4 C 18,9 C 59 % 1019,9 hPa 0,0 l/m 0 min 0 min 39 W/m 3,2 km/h (1 Bft) 97,96 %
29.07.2020 20:34 21,4 C 19,4 C 18,9 C 60 % 1019,9 hPa 0,0 l/m 0 min 0 min 36 W/m 6,4 km/h (2 Bft) 97,87 %
29.07.2020 20:36 21,3 C 19,4 C 18,9 C 60 % 1019,9 hPa 0,0 l/m 0 min 0 min 33 W/m 9,7 km/h (2 Bft) 97,83 %
29.07.2020 20:38 21,2 C 19,4 C 18,9 C 60 % 1019,9 hPa 0,0 l/m 0 min 0 min 31 W/m 3,2 km/h (1 Bft) 97,87 %
29.07.2020 20:40 21,2 C 18,9 C 18,9 C 60 % 1019,9 hPa 0,0 l/m 0 min 0 min 28 W/m 6,4 km/h (2 Bft) 97,87 %
29.07.2020 20:42 21,1 C 18,9 C 18,3 C 60 % 1019,9 hPa 0,0 l/m 0 min 0 min 26 W/m 3,2 km/h (1 Bft) 95,83 %
29.07.2020 20:44 21,1 C 18,9 C 18,3 C 60 % 1019,9 hPa 0,0 l/m 0 min 0 min 25 W/m 6,4 km/h (2 Bft) 97,87 %
29.07.2020 20:46 21,1 C 18,9 C 18,3 C 60 % 1019,9 hPa 0,0 l/m 0 min 0 min 21 W/m 6,4 km/h (2 Bft) 95,74 %
29.07.2020 20:48 20,9 C 18,9 C 18,3 C 60 % 1019,9 hPa 0,0 l/m 0 min 0 min 20 W/m 6,4 km/h (2 Bft) 100,00 %
29.07.2020 20:50 20,9 C 18,9 C 18,3 C 60 % 1019,9 hPa 0,0 l/m 0 min 0 min 19 W/m 6,4 km/h (2 Bft) 100,00 %
29.07.2020 20:52 20,8 C 18,9 C 18,3 C 61 % 1020,0 hPa 0,0 l/m 0 min 0 min 18 W/m 3,2 km/h (1 Bft) 100,00 %
29.07.2020 20:54 20,8 C 18,3 C 18,3 C 61 % 1020,0 hPa 0,0 l/m 0 min 0 min 18 W/m 3,2 km/h (1 Bft) 100,00 %
29.07.2020 20:56 20,8 C 18,3 C 17,8 C 61 % 1019,9 hPa 0,0 l/m 0 min 0 min 17 W/m 9,7 km/h (2 Bft) 97,87 %
29.07.2020 20:58 20,7 C 18,3 C 17,8 C 61 % 1020,0 hPa 0,0 l/m 0 min 0 min 16 W/m 3,2 km/h (1 Bft) 100,00 %
29.07.2020 21:00 20,7 C 18,3 C 17,8 C 61 % 1020,0 hPa 0,0 l/m 0 min 0 min 15 W/m 3,2 km/h (1 Bft) 100,00 %
29.07.2020 21:02 20,6 C 18,3 C 17,8 C 61 % 1019,9 hPa 0,0 l/m 0 min 0 min 14 W/m 3,2 km/h (1 Bft) 100,00 %
29.07.2020 21:04 20,6 C 18,3 C 17,8 C 62 % 1020,0 hPa 0,0 l/m 0 min 0 min 14 W/m 3,2 km/h (1 Bft) 100,00 %
29.07.2020 21:06 20,6 C 17,8 C 17,8 C 62 % 1020,0 hPa 0,0 l/m 0 min 0 min 12 W/m 6,4 km/h (2 Bft) 97,87 %
29.07.2020 21:08 20,4 C 17,8 C 17,8 C 62 % 1020,0 hPa 0,0 l/m 0 min 0 min 12 W/m 3,2 km/h (1 Bft) 100,00 %
29.07.2020 21:10 20,4 C 17,8 C 17,2 C 63 % 1020,0 hPa 0,0 l/m 0 min 0 min 11 W/m 3,2 km/h (1 Bft) 100,00 %
29.07.2020 21:12 20,3 C 17,8 C 17,2 C 62 % 1020,0 hPa 0,0 l/m 0 min 0 min 9 W/m 6,4 km/h (2 Bft) 100,00 %
29.07.2020 21:14 20,3 C 17,8 C 17,2 C 62 % 1020,1 hPa 0,0 l/m 0 min 0 min 8 W/m 3,2 km/h (1 Bft) 100,00 %
29.07.2020 21:16 20,2 C 17,8 C 17,2 C 63 % 1020,1 hPa 0,0 l/m 0 min 0 min 7 W/m 6,4 km/h (2 Bft) 100,00 %
29.07.2020 21:18 20,1 C 17,8 C 17,2 C 63 % 1020,1 hPa 0,0 l/m 0 min 0 min 5 W/m 3,2 km/h (1 Bft) 95,74 %
29.07.2020 21:20 20,1 C 17,8 C 17,2 C 63 % 1020,1 hPa 0,0 l/m 0 min 0 min 5 W/m 6,4 km/h (2 Bft) 97,87 %
29.07.2020 21:22 20,0 C 17,8 C 17,2 C 63 % 1020,2 hPa 0,0 l/m 0 min 0 min 1 W/m 3,2 km/h (1 Bft) 100,00 %
29.07.2020 21:24 19,9 C 17,2 C 17,2 C 63 % 1020,2 hPa 0,0 l/m 0 min 0 min 0 W/m 3,2 km/h (1 Bft) 100,00 %
29.07.2020 21:26 19,8 C 17,2 C 17,2 C 63 % 1020,2 hPa 0,0 l/m 0 min 0 min 0 W/m 3,2 km/h (1 Bft) 93,62 %
29.07.2020 21:28 19,8 C 17,2 C 17,2 C 64 % 1020,2 hPa 0,0 l/m 0 min 0 min 0 W/m 3,2 km/h (1 Bft) 97,87 %
29.07.2020 21:30 19,8 C 17,2 C 17,2 C 64 % 1020,2 hPa 0,0 l/m 0 min 0 min 0 W/m 3,2 km/h (1 Bft) 97,87 %
29.07.2020 21:32 19,7 C 17,2 C 16,7 C 64 % 1020,2 hPa 0,0 l/m 0 min 0 min 0 W/m 3,2 km/h (1 Bft) 97,96 %
29.07.2020 21:34 19,7 C 17,2 C 16,7 C 64 % 1020,3 hPa 0,0 l/m 0 min 0 min 0 W/m 3,2 km/h (1 Bft) 95,65 %
29.07.2020 21:36 19,6 C 16,7 C 16,7 C 64 % 1020,3 hPa 0,0 l/m 0 min 0 min 0 W/m 3,2 km/h (1 Bft) 97,87 %
29.07.2020 21:38 19,6 C 16,7 C 16,7 C 65 % 1020,3 hPa 0,0 l/m 0 min 0 min 0 W/m 3,2 km/h (1 Bft) 97,87 %
29.07.2020 21:40 19,4 C 16,7 C 16,7 C 65 % 1020,3 hPa 0,0 l/m 0 min 0 min 0 W/m 6,4 km/h (2 Bft) 97,87 %
29.07.2020 21:42 19,4 C 16,7 C 16,7 C 65 % 1020,3 hPa 0,0 l/m 0 min 0 min 0 W/m 3,2 km/h (1 Bft) 94,44 %
29.07.2020 21:44 19,3 C 16,7 C 16,7 C 65 % 1020,4 hPa 0,0 l/m 0 min 0 min 0 W/m 3,2 km/h (1 Bft) 97,87 %
29.07.2020 21:46 19,2 C 16,7 C 16,7 C 65 % 1020,4 hPa 0,0 l/m 0 min 0 min 0 W/m 3,2 km/h (1 Bft) 97,87 %
29.07.2020 21:48 19,2 C 16,7 C 16,7 C 65 % 1020,4 hPa 0,0 l/m 0 min 0 min 0 W/m 0,0 km/h (0 Bft) 97,87 %
29.07.2020 21:50 19,2 C 16,7 C 16,1 C 65 % 1020,4 hPa 0,0 l/m 0 min 0 min 0 W/m 0,0 km/h (0 Bft) 97,83 %
29.07.2020 21:52 19,1 C 16,7 C 16,1 C 65 % 1020,3 hPa 0,0 l/m 0 min 0 min 0 W/m 0,0 km/h (0 Bft) 97,87 %
29.07.2020 21:54 19,1 C 16,1 C 16,1 C 66 % 1020,4 hPa 0,0 l/m 0 min 0 min 0 W/m 0,0 km/h (0 Bft) 95,74 %
29.07.2020 21:56 19,0 C 16,1 C 16,1 C 66 % 1020,4 hPa 0,0 l/m 0 min 0 min 0 W/m 3,2 km/h (1 Bft) 98,15 %
29.07.2020 21:58 18,9 C 16,1 C 16,1 C 66 % 1020,4 hPa 0,0 l/m 0 min 0 min 0 W/m 3,2 km/h (1 Bft) 97,87 %
29.07.2020 22:00 18,9 C 16,1 C 16,1 C 66 % 1020,4 hPa 0,0 l/m 0 min 0 min 0 W/m 3,2 km/h (1 Bft) 97,87 %
29.07.2020 22:02 18,8 C 16,1 C 16,1 C 66 % 1020,5 hPa 0,0 l/m 0 min 0 min 0 W/m 3,2 km/h (1 Bft) 95,83 %
29.07.2020 22:04 18,7 C 16,1 C 16,1 C 66 % 1020,5 hPa 0,0 l/m 0 min 0 min 0 W/m 3,2 km/h (1 Bft) 97,92 %
29.07.2020 22:06 18,7 C 16,1 C 16,1 C 66 % 1020,5 hPa 0,0 l/m 0 min 0 min 0 W/m 3,2 km/h (1 Bft) 95,74 %
29.07.2020 22:08 18,6 C 16,1 C 16,1 C 66 % 1020,6 hPa 0,0 l/m 0 min 0 min 0 W/m 3,2 km/h (1 Bft) 97,87 %
29.07.2020 22:10 18,6 C 16,1 C 16,1 C 66 % 1020,6 hPa 0,0 l/m 0 min 0 min 0 W/m 3,2 km/h (1 Bft) 97,83 %
29.07.2020 22:12 18,5 C 16,1 C 16,1 C 66 % 1020,5 hPa 0,0 l/m 0 min 0 min 0 W/m 3,2 km/h (1 Bft) 97,92 %
29.07.2020 22:14 18,4 C 16,1 C 16,1 C 66 % 1020,5 hPa 0,0 l/m 0 min 0 min 0 W/m 3,2 km/h (1 Bft) 100,00 %
29.07.2020 22:16 18,4 C 16,1 C 16,1 C 67 % 1020,5 hPa 0,0 l/m 0 min 0 min 0 W/m 3,2 km/h (1 Bft) 100,00 %
29.07.2020 22:18 18,3 C 16,1 C 15,6 C 67 % 1020,5 hPa 0,0 l/m 0 min 0 min 0 W/m 3,2 km/h (1 Bft) 100,00 %
29.07.2020 22:20 18,3 C 16,1 C 15,6 C 67 % 1020,5 hPa 0,0 l/m 0 min 0 min 0 W/m 0,0 km/h (0 Bft) 100,00 %
29.07.2020 22:22 18,3 C 16,1 C 15,6 C 67 % 1020,5 hPa 0,0 l/m 0 min 0 min 0 W/m 0,0 km/h (0 Bft) 100,00 %
29.07.2020 22:24 18,2 C 16,1 C 15,6 C 67 % 1020,6 hPa 0,0 l/m 0 min 0 min 0 W/m 3,2 km/h (1 Bft) 100,00 %
29.07.2020 22:26 18,2 C 15,6 C 15,6 C 67 % 1020,6 hPa 0,0 l/m 0 min 0 min 0 W/m 3,2 km/h (1 Bft) 100,00 %
29.07.2020 22:28 18,1 C 15,6 C 15,6 C 67 % 1020,6 hPa 0,0 l/m 0 min 0 min 0 W/m 3,2 km/h (1 Bft) 100,00 %
29.07.2020 22:30 18,1 C 16,1 C 15,6 C 67 % 1020,6 hPa 0,0 l/m 0 min 0 min 0 W/m 6,4 km/h (2 Bft) 100,00 %
29.07.2020 22:32 18,0 C 16,1 C 15,6 C 67 % 1020,6 hPa 0,0 l/m 0 min 0 min 0 W/m 3,2 km/h (1 Bft) 100,00 %
29.07.2020 22:34 17,9 C 15,6 C 15,6 C 67 % 1020,6 hPa 0,0 l/m 0 min 0 min 0 W/m 3,2 km/h (1 Bft) 100,00 %
29.07.2020 22:36 17,9 C 15,6 C 15,6 C 68 % 1020,6 hPa 0,0 l/m 0 min 0 min 0 W/m 3,2 km/h (1 Bft) 97,83 %
29.07.2020 22:38 17,9 C 15,6 C 15,6 C 68 % 1020,7 hPa 0,0 l/m 0 min 0 min 0 W/m 3,2 km/h (1 Bft) 97,87 %
29.07.2020 22:40 17,8 C 15,6 C 15,6 C 68 % 1020,6 hPa 0,0 l/m 0 min 0 min 0 W/m 3,2 km/h (1 Bft) 97,87 %
29.07.2020 22:42 17,8 C 15,6 C 15,6 C 68 % 1020,7 hPa 0,0 l/m 0 min 0 min 0 W/m 3,2 km/h (1 Bft) 96,61 %
29.07.2020 22:44 17,7 C 15,6 C 15,6 C 68 % 1020,7 hPa 0,0 l/m 0 min 0 min 0 W/m 3,2 km/h (1 Bft) 100,00 %
29.07.2020 22:46 17,7 C 15,6 C 15,6 C 68 % 1020,7 hPa 0,0 l/m 0 min 0 min 0 W/m 3,2 km/h (1 Bft) 97,83 %
29.07.2020 22:48 17,7 C 15,6 C 15,6 C 68 % 1020,7 hPa 0,0 l/m 0 min 0 min 0 W/m 0,0 km/h (0 Bft) 97,87 %
29.07.2020 22:50 17,6 C 15,6 C 15,0 C 68 % 1020,7 hPa 0,0 l/m 0 min 0 min 0 W/m 0,0 km/h (0 Bft) 97,87 %
29.07.2020 22:52 17,6 C 15,6 C 15,0 C 68 % 1020,8 hPa 0,0 l/m 0 min 0 min 0 W/m 3,2 km/h (1 Bft) 95,74 %
29.07.2020 22:54 17,6 C 15,6 C 15,0 C 68 % 1020,7 hPa 0,0 l/m 0 min 0 min 0 W/m 3,2 km/h (1 Bft) 95,74 %
29.07.2020 22:56 17,5 C 15,6 C 15,0 C 69 % 1020,8 hPa 0,0 l/m 0 min 0 min 0 W/m 3,2 km/h (1 Bft) 95,74 %
29.07.2020 22:58 17,4 C 15,6 C 15,0 C 69 % 1020,8 hPa 0,0 l/m 0 min 0 min 0 W/m 3,2 km/h (1 Bft) 97,83 %
29.07.2020 23:00 17,4 C 15,6 C 15,0 C 69 % 1020,8 hPa 0,0 l/m 0 min 0 min 0 W/m 3,2 km/h (1 Bft) 97,87 %
29.07.2020 23:02 17,4 C 15,6 C 15,0 C 69 % 1020,8 hPa 0,0 l/m 0 min 0 min 0 W/m 3,2 km/h (1 Bft) 97,87 %
29.07.2020 23:04 17,3 C 15,6 C 15,0 C 69 % 1020,8 hPa 0,0 l/m 0 min 0 min 0 W/m 3,2 km/h (1 Bft) 95,74 %
29.07.2020 23:06 17,3 C 15,6 C 15,0 C 69 % 1020,8 hPa 0,0 l/m 0 min 0 min 0 W/m 6,4 km/h (2 Bft) 95,74 %
29.07.2020 23:08 17,3 C 15,6 C 15,0 C 69 % 1020,8 hPa 0,0 l/m 0 min 0 min 0 W/m 3,2 km/h (1 Bft) 93,62 %
29.07.2020 23:10 17,2 C 15,6 C 15,0 C 69 % 1020,8 hPa 0,0 l/m 0 min 0 min 0 W/m 0,0 km/h (0 Bft) 95,65 %
29.07.2020 23:12 17,2 C 15,6 C 15,0 C 69 % 1020,8 hPa 0,0 l/m 0 min 0 min 0 W/m 0,0 km/h (0 Bft) 95,74 %
29.07.2020 23:14 17,1 C 15,6 C 15,0 C 69 % 1020,8 hPa 0,0 l/m 0 min 0 min 0 W/m 3,2 km/h (1 Bft) 93,62 %
29.07.2020 23:16 17,1 C 15,6 C 15,0 C 69 % 1020,8 hPa 0,0 l/m 0 min 0 min 0 W/m 3,2 km/h (1 Bft) 95,74 %
29.07.2020 23:18 17,1 C 15,6 C 15,0 C 69 % 1020,8 hPa 0,0 l/m 0 min 0 min 0 W/m 3,2 km/h (1 Bft) 96,23 %
29.07.2020 23:20 17,1 C 15,6 C 15,0 C 69 % 1020,8 hPa 0,0 l/m 0 min 0 min 0 W/m 3,2 km/h (1 Bft) 95,65 %
29.07.2020 23:22 17,0 C 15,6 C 15,0 C 70 % 1020,9 hPa 0,0 l/m 0 min 0 min 0 W/m 3,2 km/h (1 Bft) 95,83 %
29.07.2020 23:24 17,0 C 15,6 C 15,0 C 70 % 1020,8 hPa 0,0 l/m 0 min 0 min 0 W/m 3,2 km/h (1 Bft) 93,75 %
29.07.2020 23:26 16,9 C 15,0 C 15,0 C 70 % 1020,9 hPa 0,0 l/m 0 min 0 min 0 W/m 0,0 km/h (0 Bft) 95,74 %
29.07.2020 23:28 16,9 C 15,0 C 15,0 C 70 % 1020,8 hPa 0,0 l/m 0 min 0 min 0 W/m 3,2 km/h (1 Bft) 95,74 %
29.07.2020 23:30 16,9 C 15,0 C 15,0 C 70 % 1020,8 hPa 0,0 l/m 0 min 0 min 0 W/m 3,2 km/h (1 Bft) 95,74 %
29.07.2020 23:32 16,9 C 15,0 C 15,0 C 70 % 1020,8 hPa 0,0 l/m 0 min 0 min 0 W/m 0,0 km/h (0 Bft) 95,83 %
29.07.2020 23:34 16,8 C 15,0 C 15,0 C 70 % 1020,8 hPa 0,0 l/m 0 min 0 min 0 W/m 3,2 km/h (1 Bft) 93,62 %
29.07.2020 23:36 16,8 C 15,0 C 15,0 C 70 % 1020,8 hPa 0,0 l/m 0 min 0 min 0 W/m 0,0 km/h (0 Bft) 93,62 %
29.07.2020 23:38 16,8 C 15,0 C 15,0 C 70 % 1020,9 hPa 0,0 l/m 0 min 0 min 0 W/m 0,0 km/h (0 Bft) 93,62 %
29.07.2020 23:40 16,8 C 15,0 C 14,4 C 70 % 1020,8 hPa 0,0 l/m 0 min 0 min 0 W/m 0,0 km/h (0 Bft) 93,62 %
29.07.2020 23:42 16,7 C 15,0 C 14,4 C 70 % 1020,8 hPa 0,0 l/m 0 min 0 min 0 W/m 0,0 km/h (0 Bft) 93,62 %
29.07.2020 23:44 16,7 C 15,0 C 14,4 C 70 % 1020,9 hPa 0,0 l/m 0 min 0 min 0 W/m 3,2 km/h (1 Bft) 93,48 %
29.07.2020 23:46 16,7 C 15,0 C 14,4 C 70 % 1020,9 hPa 0,0 l/m 0 min 0 min 0 W/m 0,0 km/h (0 Bft) 93,62 %
29.07.2020 23:48 16,7 C 15,0 C 14,4 C 70 % 1020,9 hPa 0,0 l/m 0 min 0 min 0 W/m 0,0 km/h (0 Bft) 93,62 %
29.07.2020 23:50 16,6 C 15,0 C 14,4 C 70 % 1020,9 hPa 0,0 l/m 0 min 0 min 0 W/m 0,0 km/h (0 Bft) 97,87 %
29.07.2020 23:52 16,6 C 14,4 C 14,4 C 70 % 1020,9 hPa 0,0 l/m 0 min 0 min 0 W/m 3,2 km/h (1 Bft) 95,74 %
29.07.2020 23:54 16,6 C 14,4 C 14,4 C 70 % 1020,9 hPa 0,0 l/m 0 min 0 min 0 W/m 0,0 km/h (0 Bft) 93,48 %
29.07.2020 23:56 16,6 C 14,4 C 14,4 C 71 % 1020,8 hPa 0,0 l/m 0 min 0 min 0 W/m 0,0 km/h (0 Bft) 93,62 %
29.07.2020 23:58 16,5 C 14,4 C 14,4 C 71 % 1020,9 hPa 0,0 l/m 0 min 0 min 0 W/m 0,0 km/h (0 Bft) 97,87 %
_ Min-Zeit 06:26 05:06 05:22 16:56 00:00 - - - - 00:50 02:32
Minimum _ 14,0 C 12,8 C 12,8 C 49 % 1017,1 hPa - - - - 0,0 km/h (0 Bft) 53,66 %
_ Max-Zeit 16:46 13:12 10:18 07:04 13:22 00:00 16:38 00:00 13:06 10:34 00:40
Maximum _ 25,8 C 30,6 C 30,0 C 88 % 1021,0 hPa 0,0 l/m 4 min 0 min 1101 W/m 29,0 km/h
S-SO (5 Bft)
100,00 %
Durchschnitt _ 19,4 C 19,8 C 18,8 C 67 % 1019,5 hPa #0,0 l/m #7:42 h #0 min. 385 W/m 7,9 km/h (2 Bft) 97,34 %
© 2020 W. Hausmann